Time,TemperatureF,DewpointF,PressureIn,WindDirection,WindDirectionDegrees,WindSpeedMPH,WindSpeedGustMPH,Humidity,HourlyPrecipIn,Conditions,Clouds,dailyrainin,SoftwareType,DateUTC
2013-01-10 00:00:00,42.6,31.7,30.20,WSW,248,6.9,8.5,65,0.00,,,0.00,WUHU216HW,2013-01-10 05:00:00,
2013-01-10 00:01:00,42.6,31.7,30.20,WNW,293,3.4,8.5,65,0.00,,,0.00,WUHU216HW,2013-01-10 05:01:00,
2013-01-10 00:02:00,42.7,31.8,30.20,WNW,293,3.8,8.5,65,0.00,,,0.00,WUHU216HW,2013-01-10 05:02:00,
2013-01-10 00:05:00,42.6,31.7,30.20,WNW,293,4.7,8.5,65,0.00,,,0.00,WUHU216HW,2013-01-10 05:05:00,
2013-01-10 00:06:00,42.6,31.7,30.20,WNW,293,4.0,8.5,65,0.00,,,0.00,WUHU216HW,2013-01-10 05:06:00,
2013-01-10 00:07:00,42.6,31.7,30.21,WNW,293,5.8,8.5,65,0.00,,,0.00,WUHU216HW,2013-01-10 05:07:00,
2013-01-10 00:10:00,42.6,31.7,30.21,WNW,293,2.5,8.5,65,0.00,,,0.00,WUHU216HW,2013-01-10 05:10:00,
2013-01-10 00:11:00,42.6,31.7,30.21,West,270,3.1,8.5,65,0.00,,,0.00,WUHU216HW,2013-01-10 05:11:00,
2013-01-10 00:12:00,42.6,31.7,30.21,West,270,3.1,8.5,65,0.00,,,0.00,WUHU216HW,2013-01-10 05:12:00,
2013-01-10 00:15:00,42.4,31.6,30.21,West,270,2.7,5.8,65,0.00,,,0.00,WUHU216HW,2013-01-10 05:15:00,
2013-01-10 00:16:00,42.4,31.6,30.21,West,270,2.5,5.8,65,0.00,,,0.00,WUHU216HW,2013-01-10 05:16:00,
2013-01-10 00:17:00,42.2,31.4,30.21,West,270,6.5,6.5,65,0.00,,,0.00,WUHU216HW,2013-01-10 05:17:00,
2013-01-10 00:18:00,42.2,31.4,30.21,WNW,293,4.7,6.5,65,0.00,,,0.00,WUHU216HW,2013-01-10 05:18:00,
2013-01-10 00:21:00,42.2,31.4,30.22,WNW,293,6.7,7.4,65,0.00,,,0.00,WUHU216HW,2013-01-10 05:21:00,
2013-01-10 00:22:00,42.2,31.0,30.22,North,0,1.8,7.4,64,0.00,,,0.00,WUHU216HW,2013-01-10 05:22:00,
2013-01-10 00:23:00,42.2,31.0,30.22,North,0,1.8,7.4,64,0.00,,,0.00,WUHU216HW,2013-01-10 05:23:00,
2013-01-10 00:26:00,42.2,31.4,30.22,West,270,1.6,7.4,65,0.00,,,0.00,WUHU216HW,2013-01-10 05:26:00,
2013-01-10 00:27:00,42.2,31.4,30.22,West,270,4.9,7.4,65,0.00,,,0.00,WUHU216HW,2013-01-10 05:27:00,
2013-01-10 00:28:00,42.2,31.4,30.22,WSW,248,4.0,7.4,65,0.00,,,0.00,WUHU216HW,2013-01-10 05:28:00,
2013-01-10 00:31:00,42.2,31.4,30.22,WSW,248,7.8,7.8,65,0.00,,,0.00,WUHU216HW,2013-01-10 05:31:00,
2013-01-10 00:32:00,42.0,30.8,30.22,WNW,293,8.5,8.5,64,0.00,,,0.00,WUHU216HW,2013-01-10 05:32:00,
2013-01-10 00:33:00,42.2,31.4,30.22,NW,315,5.4,8.5,65,0.00,,,0.00,WUHU216HW,2013-01-10 05:33:00,
2013-01-10 00:36:00,42.2,31.0,30.22,NW,315,6.5,8.5,64,0.00,,,0.00,WUHU216HW,2013-01-10 05:36:00,
2013-01-10 00:37:00,42.2,31.4,30.22,WNW,293,3.4,8.5,65,0.00,,,0.00,WUHU216HW,2013-01-10 05:37:00,
2013-01-10 00:38:00,42.2,31.0,30.22,West,270,4.0,8.5,64,0.00,,,0.00,WUHU216HW,2013-01-10 05:38:00,
2013-01-10 00:41:00,42.0,30.8,30.22,NNW,338,2.0,8.5,64,0.00,,,0.00,WUHU216HW,2013-01-10 05:41:00,
2013-01-10 00:42:00,41.8,30.6,30.21,WNW,293,4.0,6.5,64,0.00,,,0.00,WUHU216HW,2013-01-10 05:42:00,
2013-01-10 00:43:00,41.8,30.6,30.22,WSW,248,5.1,6.5,64,0.00,,,0.00,WUHU216HW,2013-01-10 05:43:00,
2013-01-10 00:44:00,41.8,30.6,30.22,WSW,248,5.1,6.5,64,0.00,,,0.00,WUHU216HW,2013-01-10 05:44:00,
2013-01-10 00:46:00,41.7,30.9,30.22,West,270,6.3,6.3,65,0.00,,,0.00,WUHU216HW,2013-01-10 05:46:00,
2013-01-10 00:47:00,41.7,30.5,30.22,WNW,293,4.5,6.3,64,0.00,,,0.00,WUHU216HW,2013-01-10 05:47:00,
2013-01-10 00:48:00,41.7,30.5,30.22,WNW,293,4.0,6.3,64,0.00,,,0.00,WUHU216HW,2013-01-10 05:48:00,
2013-01-10 00:49:00,41.5,30.7,30.22,West,270,4.7,6.3,65,0.00,,,0.00,WUHU216HW,2013-01-10 05:49:00,
2013-01-10 00:51:00,41.5,30.3,30.22,West,270,6.5,6.5,64,0.00,,,0.00,WUHU216HW,2013-01-10 05:51:00,
2013-01-10 00:53:00,41.5,30.3,30.22,SW,225,4.7,6.5,64,0.00,,,0.00,WUHU216HW,2013-01-10 05:53:00,
2013-01-10 00:54:00,41.5,30.3,30.22,WNW,293,5.6,6.5,64,0.00,,,0.00,WUHU216HW,2013-01-10 05:54:00,
2013-01-10 00:56:00,41.5,30.7,30.22,WNW,293,4.0,6.5,65,0.00,,,0.00,WUHU216HW,2013-01-10 05:56:00,
2013-01-10 00:58:00,41.3,30.1,30.23,NW,315,5.4,6.5,64,0.00,,,0.00,WUHU216HW,2013-01-10 05:58:00,
2013-01-10 00:59:00,41.3,30.1,30.23,NW,315,5.4,6.5,64,0.00,,,0.00,WUHU216HW,2013-01-10 05:59:00,
2013-01-10 01:01:00,41.3,30.1,30.23,SW,225,5.1,6.3,64,0.00,,,0.00,WUHU216HW,2013-01-10 06:01:00,
2013-01-10 01:03:00,41.3,30.1,30.23,North,0,3.4,6.3,64,0.00,,,0.00,WUHU216HW,2013-01-10 06:03:00,
2013-01-10 01:04:00,41.3,30.1,30.23,NNW,338,2.7,6.3,64,0.00,,,0.00,WUHU216HW,2013-01-10 06:04:00,
2013-01-10 01:06:00,41.5,30.3,30.23,WNW,293,4.0,6.3,64,0.00,,,0.00,WUHU216HW,2013-01-10 06:06:00,
2013-01-10 01:08:00,41.5,29.9,30.23,NW,315,15.4,15.4,63,0.00,,,0.00,WUHU216HW,2013-01-10 06:08:00,
2013-01-10 01:09:00,41.5,29.9,30.23,NW,315,8.5,15.4,63,0.00,,,0.00,WUHU216HW,2013-01-10 06:09:00,
2013-01-10 01:11:00,41.8,30.2,30.23,WNW,293,2.5,15.4,63,0.00,,,0.00,WUHU216HW,2013-01-10 06:11:00,
2013-01-10 01:13:00,41.8,29.8,30.23,NW,315,5.6,15.4,62,0.00,,,0.00,WUHU216HW,2013-01-10 06:13:00,
2013-01-10 01:14:00,41.8,29.8,30.23,West,270,4.7,15.4,62,0.00,,,0.00,WUHU216HW,2013-01-10 06:14:00,
2013-01-10 01:16:00,41.8,29.8,30.23,West,270,3.6,15.4,62,0.00,,,0.00,WUHU216HW,2013-01-10 06:16:00,
2013-01-10 01:18:00,41.8,29.4,30.23,WNW,293,7.6,8.5,61,0.00,,,0.00,WUHU216HW,2013-01-10 06:18:00,
2013-01-10 01:19:00,41.8,29.4,30.23,WNW,293,10.1,10.1,61,0.00,,,0.00,WUHU216HW,2013-01-10 06:19:00,
2013-01-10 01:21:00,41.8,29.0,30.24,NW,315,9.8,10.1,60,0.00,,,0.00,WUHU216HW,2013-01-10 06:21:00,
2013-01-10 01:23:00,41.8,29.0,30.24,WNW,293,7.2,10.1,60,0.00,,,0.00,WUHU216HW,2013-01-10 06:23:00,
2013-01-10 01:24:00,42.0,28.8,30.24,West,270,3.4,10.1,59,0.00,,,0.00,WUHU216HW,2013-01-10 06:24:00,
2013-01-10 01:26:00,42.0,29.2,30.24,NW,315,8.1,10.1,60,0.00,,,0.00,WUHU216HW,2013-01-10 06:26:00,
2013-01-10 01:29:00,42.0,28.3,30.24,NNW,338,9.2,10.1,58,0.00,,,0.00,WUHU216HW,2013-01-10 06:29:00,
2013-01-10 01:31:00,42.2,29.0,30.24,WNW,293,6.9,9.2,59,0.00,,,0.00,WUHU216HW,2013-01-10 06:31:00,
2013-01-10 01:34:00,42.0,28.3,30.24,West,270,4.7,9.2,58,0.00,,,0.00,WUHU216HW,2013-01-10 06:34:00,
2013-01-10 01:36:00,42.0,28.3,30.24,WSW,248,12.3,12.3,58,0.00,,,0.00,WUHU216HW,2013-01-10 06:36:00,
2013-01-10 01:39:00,42.0,28.3,30.24,North,0,6.3,12.3,58,0.00,,,0.00,WUHU216HW,2013-01-10 06:39:00,
2013-01-10 01:42:00,42.0,28.3,30.25,WNW,293,5.1,12.3,58,0.00,,,0.00,WUHU216HW,2013-01-10 06:42:00,
2013-01-10 01:44:00,42.0,28.8,30.24,NW,315,5.4,12.3,59,0.00,,,0.00,WUHU216HW,2013-01-10 06:44:00,
2013-01-10 01:45:00,42.0,28.8,30.24,NW,315,5.4,12.3,59,0.00,,,0.00,WUHU216HW,2013-01-10 06:45:00,
2013-01-10 01:47:00,42.0,28.3,30.24,NNW,338,6.3,9.8,58,0.00,,,0.00,WUHU216HW,2013-01-10 06:47:00,
2013-01-10 01:49:00,41.8,27.7,30.25,NW,315,5.4,9.8,57,0.00,,,0.00,WUHU216HW,2013-01-10 06:49:00,
2013-01-10 01:50:00,41.8,27.7,30.25,NW,315,5.4,9.8,57,0.00,,,0.00,WUHU216HW,2013-01-10 06:50:00,
2013-01-10 01:52:00,41.8,27.7,30.25,North,0,3.1,9.8,57,0.00,,,0.00,WUHU216HW,2013-01-10 06:52:00,
2013-01-10 01:54:00,41.8,28.2,30.24,NNW,338,3.6,9.8,58,0.00,,,0.00,WUHU216HW,2013-01-10 06:54:00,
2013-01-10 01:55:00,41.7,27.6,30.24,WNW,293,7.2,7.2,57,0.00,,,0.00,WUHU216HW,2013-01-10 06:55:00,
2013-01-10 01:56:00,41.7,27.6,30.24,WNW,293,7.2,7.2,57,0.00,,,0.00,WUHU216HW,2013-01-10 06:56:00,
2013-01-10 01:57:00,41.7,27.6,30.24,WNW,293,8.7,8.7,57,0.00,,,0.00,WUHU216HW,2013-01-10 06:57:00,
2013-01-10 01:59:00,41.7,28.1,30.25,NNW,338,8.5,8.7,58,0.00,,,0.00,WUHU216HW,2013-01-10 06:59:00,
2013-01-10 02:00:00,41.8,28.2,30.25,WNW,293,8.9,8.9,58,0.00,,,0.00,WUHU216HW,2013-01-10 07:00:00,
2013-01-10 02:01:00,41.7,28.1,30.25,North,0,11.6,11.6,58,0.00,,,0.00,WUHU216HW,2013-01-10 07:01:00,
2013-01-10 02:02:00,41.8,28.2,30.25,NNW,338,7.6,11.6,58,0.00,,,0.00,WUHU216HW,2013-01-10 07:02:00,
2013-01-10 02:04:00,41.8,28.2,30.26,NNE,23,5.4,11.6,58,0.00,,,0.00,WUHU216HW,2013-01-10 07:04:00,
2013-01-10 02:05:00,41.8,27.7,30.26,WNW,293,9.2,11.6,57,0.00,,,0.00,WUHU216HW,2013-01-10 07:05:00,
2013-01-10 02:06:00,41.7,28.1,30.26,North,0,1.8,11.6,58,0.00,,,0.00,WUHU216HW,2013-01-10 07:06:00,
2013-01-10 02:07:00,41.7,28.1,30.26,NNW,338,4.0,11.6,58,0.00,,,0.00,WUHU216HW,2013-01-10 07:07:00,
2013-01-10 02:09:00,41.5,27.9,30.26,NW,315,10.5,11.6,58,0.00,,,0.00,WUHU216HW,2013-01-10 07:09:00,
2013-01-10 02:10:00,41.5,27.4,30.26,NNW,338,4.0,11.6,57,0.00,,,0.00,WUHU216HW,2013-01-10 07:10:00,
2013-01-10 02:11:00,41.5,27.9,30.26,WNW,293,8.9,10.5,58,0.00,,,0.00,WUHU216HW,2013-01-10 07:11:00,
2013-01-10 02:12:00,41.5,27.9,30.26,NNW,338,6.9,10.5,58,0.00,,,0.00,WUHU216HW,2013-01-10 07:12:00,
2013-01-10 02:15:00,41.5,27.9,30.26,WNW,293,3.1,10.5,58,0.00,,,0.00,WUHU216HW,2013-01-10 07:15:00,
2013-01-10 02:16:00,41.3,27.7,30.26,WSW,248,5.4,10.5,58,0.00,,,0.00,WUHU216HW,2013-01-10 07:16:00,
2013-01-10 02:17:00,41.1,27.5,30.26,NNW,338,8.3,10.5,58,0.00,,,0.00,WUHU216HW,2013-01-10 07:17:00,
2013-01-10 02:20:00,41.3,27.7,30.27,NNW,338,6.7,12.8,58,0.00,,,0.00,WUHU216HW,2013-01-10 07:20:00,
2013-01-10 02:21:00,41.5,27.9,30.27,NNW,338,5.4,12.8,58,0.00,,,0.00,WUHU216HW,2013-01-10 07:21:00,
2013-01-10 02:22:00,41.5,27.9,30.27,NNW,338,2.9,12.8,58,0.00,,,0.00,WUHU216HW,2013-01-10 07:22:00,
2013-01-10 02:25:00,41.5,27.4,30.27,NW,315,4.7,12.8,57,0.00,,,0.00,WUHU216HW,2013-01-10 07:25:00,
2013-01-10 02:26:00,41.5,27.4,30.28,NW,315,8.9,12.8,57,0.00,,,0.00,WUHU216HW,2013-01-10 07:26:00,
2013-01-10 02:27:00,41.5,27.0,30.27,NW,315,13.6,13.6,56,0.00,,,0.00,WUHU216HW,2013-01-10 07:27:00,
2013-01-10 02:30:00,41.7,27.6,30.28,North,0,10.1,13.6,57,0.00,,,0.00,WUHU216HW,2013-01-10 07:30:00,
2013-01-10 02:31:00,41.7,27.6,30.28,North,0,4.9,13.6,57,0.00,,,0.00,WUHU216HW,2013-01-10 07:31:00,
2013-01-10 02:33:00,41.7,27.2,30.28,NNW,338,8.9,13.6,56,0.00,,,0.00,WUHU216HW,2013-01-10 07:33:00,
2013-01-10 02:35:00,41.7,27.2,30.28,WNW,293,5.8,13.6,56,0.00,,,0.00,WUHU216HW,2013-01-10 07:35:00,
2013-01-10 02:36:00,41.7,27.2,30.28,NW,315,6.0,13.6,56,0.00,,,0.00,WUHU216HW,2013-01-10 07:36:00,
2013-01-10 02:38:00,41.5,27.0,30.28,North,0,6.7,10.7,56,0.00,,,0.00,WUHU216HW,2013-01-10 07:38:00,
2013-01-10 02:40:00,41.5,27.0,30.28,NNW,338,7.6,9.6,56,0.00,,,0.00,WUHU216HW,2013-01-10 07:40:00,
2013-01-10 02:41:00,41.5,27.0,30.28,NNW,338,8.3,9.6,56,0.00,,,0.00,WUHU216HW,2013-01-10 07:41:00,
2013-01-10 02:43:00,41.3,26.8,30.28,West,270,4.0,9.6,56,0.00,,,0.00,WUHU216HW,2013-01-10 07:43:00,
2013-01-10 02:45:00,41.3,26.8,30.28,North,0,14.5,14.5,56,0.00,,,0.00,WUHU216HW,2013-01-10 07:45:00,
2013-01-10 02:46:00,41.3,26.8,30.28,West,270,3.8,14.5,56,0.00,,,0.00,WUHU216HW,2013-01-10 07:46:00,
2013-01-10 02:49:00,41.1,26.6,30.28,North,0,6.9,14.5,56,0.00,,,0.00,WUHU216HW,2013-01-10 07:49:00,
2013-01-10 02:50:00,41.1,26.6,30.29,NNW,338,7.6,14.5,56,0.00,,,0.00,WUHU216HW,2013-01-10 07:50:00,
2013-01-10 02:51:00,41.1,26.6,30.29,NNW,338,7.6,14.5,56,0.00,,,0.00,WUHU216HW,2013-01-10 07:51:00,
2013-01-10 02:54:00,41.3,26.8,30.29,NNW,338,6.3,14.5,56,0.00,,,0.00,WUHU216HW,2013-01-10 07:54:00,
2013-01-10 02:56:00,41.3,26.8,30.29,North,0,8.3,11.0,56,0.00,,,0.00,WUHU216HW,2013-01-10 07:56:00,
2013-01-10 02:59:00,41.3,26.4,30.29,NNW,338,6.7,11.0,55,0.00,,,0.00,WUHU216HW,2013-01-10 07:59:00,
2013-01-10 03:01:00,41.3,26.4,30.28,North,0,8.5,11.0,55,0.00,,,0.00,WUHU216HW,2013-01-10 08:01:00,
2013-01-10 03:02:00,41.1,26.2,30.28,NW,315,6.9,11.0,55,0.00,,,0.00,WUHU216HW,2013-01-10 08:02:00,
2013-01-10 03:04:00,41.3,26.4,30.28,West,270,4.5,8.5,55,0.00,,,0.00,WUHU216HW,2013-01-10 08:04:00,
2013-01-10 03:06:00,41.1,25.7,30.29,NNW,338,6.5,8.5,54,0.00,,,0.00,WUHU216HW,2013-01-10 08:06:00,
2013-01-10 03:07:00,41.1,26.2,30.29,North,0,4.9,8.5,55,0.00,,,0.00,WUHU216HW,2013-01-10 08:07:00,
2013-01-10 03:10:00,41.1,26.2,30.29,WNW,293,4.7,8.5,55,0.00,,,0.00,WUHU216HW,2013-01-10 08:10:00,
2013-01-10 03:11:00,40.9,26.0,30.29,NW,315,6.5,7.6,55,0.00,,,0.00,WUHU216HW,2013-01-10 08:11:00,
2013-01-10 03:12:00,40.9,26.0,30.29,WNW,293,5.1,7.6,55,0.00,,,0.00,WUHU216HW,2013-01-10 08:12:00,
2013-01-10 03:15:00,40.9,26.0,30.29,WNW,293,6.9,7.6,55,0.00,,,0.00,WUHU216HW,2013-01-10 08:15:00,
2013-01-10 03:16:00,40.9,26.0,30.29,WNW,293,16.3,16.3,55,0.00,,,0.00,WUHU216HW,2013-01-10 08:16:00,
2013-01-10 03:17:00,40.9,26.0,30.29,West,270,6.3,16.3,55,0.00,,,0.00,WUHU216HW,2013-01-10 08:17:00,
2013-01-10 03:20:00,40.9,26.0,30.30,North,0,5.4,16.3,55,0.00,,,0.00,WUHU216HW,2013-01-10 08:20:00,
2013-01-10 03:21:00,40.9,26.0,30.29,NNW,338,7.6,16.3,55,0.00,,,0.00,WUHU216HW,2013-01-10 08:21:00,
2013-01-10 03:22:00,40.9,26.0,30.30,NNW,338,4.0,16.3,55,0.00,,,0.00,WUHU216HW,2013-01-10 08:22:00,
2013-01-10 03:25:00,40.8,25.9,30.30,NW,315,4.7,16.3,55,0.00,,,0.00,WUHU216HW,2013-01-10 08:25:00,
2013-01-10 03:26:00,40.6,25.7,30.30,WNW,293,3.4,7.6,55,0.00,,,0.00,WUHU216HW,2013-01-10 08:26:00,
2013-01-10 03:27:00,40.6,26.2,30.30,NNW,338,4.9,7.6,56,0.00,,,0.00,WUHU216HW,2013-01-10 08:27:00,
2013-01-10 03:30:00,40.4,26.0,30.31,North,0,1.8,7.6,56,0.00,,,0.00,WUHU216HW,2013-01-10 08:30:00,
2013-01-10 03:31:00,40.4,26.0,30.31,WNW,293,3.4,5.4,56,0.00,,,0.00,WUHU216HW,2013-01-10 08:31:00,
2013-01-10 03:32:00,40.4,26.0,30.31,SSW,203,2.7,5.4,56,0.00,,,0.00,WUHU216HW,2013-01-10 08:32:00,
2013-01-10 03:33:00,40.4,26.0,30.31,SSW,203,2.7,5.4,56,0.00,,,0.00,WUHU216HW,2013-01-10 08:33:00,
2013-01-10 03:35:00,40.2,25.3,30.31,North,0,2.7,7.6,55,0.00,,,0.00,WUHU216HW,2013-01-10 08:35:00,
2013-01-10 03:37:00,40.2,25.8,30.31,NNW,338,5.1,7.6,56,0.00,,,0.00,WUHU216HW,2013-01-10 08:37:00,
2013-01-10 03:38:00,40.2,25.8,30.31,NW,315,6.9,7.6,56,0.00,,,0.00,WUHU216HW,2013-01-10 08:38:00,
2013-01-10 03:40:00,40.2,25.8,30.31,SW,225,9.6,9.6,56,0.00,,,0.00,WUHU216HW,2013-01-10 08:40:00,
2013-01-10 03:42:00,40.0,25.6,30.30,NW,315,6.3,9.6,56,0.00,,,0.00,WUHU216HW,2013-01-10 08:42:00,
2013-01-10 03:43:00,40.0,25.1,30.31,WNW,293,9.8,9.8,55,0.00,,,0.00,WUHU216HW,2013-01-10 08:43:00,
2013-01-10 03:46:00,40.0,25.6,30.31,NNW,338,10.7,10.7,56,0.00,,,0.00,WUHU216HW,2013-01-10 08:46:00,
2013-01-10 03:47:00,40.2,25.3,30.31,WNW,293,6.7,11.2,55,0.00,,,0.00,WUHU216HW,2013-01-10 08:47:00,
2013-01-10 03:48:00,40.2,25.3,30.31,WNW,293,5.8,11.2,55,0.00,,,0.00,WUHU216HW,2013-01-10 08:48:00,
2013-01-10 03:51:00,40.2,25.8,30.31,NW,315,2.9,11.2,56,0.00,,,0.00,WUHU216HW,2013-01-10 08:51:00,
2013-01-10 03:52:00,40.2,25.8,30.31,NW,315,5.8,11.2,56,0.00,,,0.00,WUHU216HW,2013-01-10 08:52:00,
2013-01-10 03:54:00,40.2,25.8,30.31,West,270,3.1,11.2,56,0.00,,,0.00,WUHU216HW,2013-01-10 08:54:00,
2013-01-10 03:56:00,40.0,25.1,30.31,NNW,338,4.7,6.7,55,0.00,,,0.00,WUHU216HW,2013-01-10 08:56:00,
2013-01-10 03:57:00,40.0,25.1,30.31,NNW,338,4.0,5.8,55,0.00,,,0.00,WUHU216HW,2013-01-10 08:57:00,
2013-01-10 03:59:00,40.0,25.6,30.31,West,270,2.0,5.8,56,0.00,,,0.00,WUHU216HW,2013-01-10 08:59:00,
2013-01-10 04:01:00,39.9,25.5,30.31,NNW,338,3.1,5.8,56,0.00,,,0.00,WUHU216HW,2013-01-10 09:01:00,
2013-01-10 04:02:00,39.9,25.5,30.31,WSW,248,6.9,6.9,56,0.00,,,0.00,WUHU216HW,2013-01-10 09:02:00,
2013-01-10 04:04:00,39.7,25.3,30.31,West,270,5.4,7.6,56,0.00,,,0.00,WUHU216HW,2013-01-10 09:04:00,
2013-01-10 04:07:00,39.7,25.3,30.32,WNW,293,4.3,7.6,56,0.00,,,0.00,WUHU216HW,2013-01-10 09:07:00,
2013-01-10 04:09:00,39.7,25.3,30.31,WNW,293,6.3,7.6,56,0.00,,,0.00,WUHU216HW,2013-01-10 09:09:00,
2013-01-10 04:12:00,39.7,25.7,30.31,NNW,338,1.6,7.6,57,0.00,,,0.00,WUHU216HW,2013-01-10 09:12:00,
2013-01-10 04:14:00,39.5,25.6,30.31,WNW,293,2.5,6.3,57,0.00,,,0.00,WUHU216HW,2013-01-10 09:14:00,
2013-01-10 04:17:00,39.3,25.4,30.31,WNW,293,2.9,6.3,57,0.00,,,0.00,WUHU216HW,2013-01-10 09:17:00,
2013-01-10 04:19:00,39.3,25.4,30.31,WNW,293,5.6,5.6,57,0.00,,,0.00,WUHU216HW,2013-01-10 09:19:00,
2013-01-10 04:22:00,39.3,25.4,30.31,North,0,3.4,5.6,57,0.00,,,0.00,WUHU216HW,2013-01-10 09:22:00,
2013-01-10 04:23:00,39.3,25.4,30.31,North,0,3.4,5.6,57,0.00,,,0.00,WUHU216HW,2013-01-10 09:23:00,
2013-01-10 04:24:00,39.1,25.6,30.31,North,0,5.4,5.6,58,0.00,,,0.00,WUHU216HW,2013-01-10 09:24:00,
2013-01-10 04:27:00,39.1,25.2,30.31,North,0,3.1,5.6,57,0.00,,,0.00,WUHU216HW,2013-01-10 09:27:00,
2013-01-10 04:28:00,39.1,25.2,30.31,WNW,293,4.0,5.6,57,0.00,,,0.00,WUHU216HW,2013-01-10 09:28:00,
2013-01-10 04:29:00,39.1,25.6,30.31,West,270,8.1,8.1,58,0.00,,,0.00,WUHU216HW,2013-01-10 09:29:00,
2013-01-10 04:33:00,39.0,25.5,30.31,NNW,338,6.7,8.1,58,0.00,,,0.00,WUHU216HW,2013-01-10 09:33:00,
2013-01-10 04:34:00,39.1,25.6,30.31,NW,315,3.1,8.1,58,0.00,,,0.00,WUHU216HW,2013-01-10 09:34:00,
2013-01-10 04:38:00,39.1,25.6,30.32,NW,315,1.6,8.1,58,0.00,,,0.00,WUHU216HW,2013-01-10 09:38:00,
2013-01-10 04:39:00,39.0,25.5,30.32,NW,315,1.3,6.7,58,0.00,,,0.00,WUHU216HW,2013-01-10 09:39:00,
2013-01-10 04:43:00,39.0,25.5,30.32,NNW,338,6.0,6.0,58,0.00,,,0.00,WUHU216HW,2013-01-10 09:43:00,
2013-01-10 04:44:00,39.0,25.5,30.32,NNW,338,6.7,6.7,58,0.00,,,0.00,WUHU216HW,2013-01-10 09:44:00,
2013-01-10 04:48:00,39.0,25.5,30.32,NNW,338,1.1,6.7,58,0.00,,,0.00,WUHU216HW,2013-01-10 09:48:00,
2013-01-10 04:50:00,39.0,25.5,30.32,WNW,293,0.9,6.7,58,0.00,,,0.00,WUHU216HW,2013-01-10 09:50:00,
2013-01-10 04:53:00,38.8,25.3,30.33,NNW,338,1.3,6.7,58,0.00,,,0.00,WUHU216HW,2013-01-10 09:53:00,
2013-01-10 04:54:00,38.8,25.7,30.33,NNW,338,3.1,6.7,59,0.00,,,0.00,WUHU216HW,2013-01-10 09:54:00,
2013-01-10 04:55:00,38.8,25.3,30.33,NNW,338,2.0,5.8,58,0.00,,,0.00,WUHU216HW,2013-01-10 09:55:00,
2013-01-10 04:58:00,38.6,25.6,30.33,SW,225,2.9,4.5,59,0.00,,,0.00,WUHU216HW,2013-01-10 09:58:00,
2013-01-10 04:59:00,38.6,25.6,30.33,SW,225,2.9,4.5,59,0.00,,,0.00,WUHU216HW,2013-01-10 09:59:00,
2013-01-10 05:00:00,38.6,25.6,30.33,West,270,2.5,4.5,59,0.00,,,0.00,WUHU216HW,2013-01-10 10:00:00,
2013-01-10 05:04:00,38.2,25.2,30.34,NW,315,1.1,3.1,59,0.00,,,0.00,WUHU216HW,2013-01-10 10:04:00,
2013-01-10 05:05:00,38.2,25.2,30.34,NW,315,1.3,3.1,59,0.00,,,0.00,WUHU216HW,2013-01-10 10:05:00,
2013-01-10 05:09:00,37.9,24.9,30.34,WSW,248,3.8,3.8,59,0.00,,,0.00,WUHU216HW,2013-01-10 10:09:00,
2013-01-10 05:10:00,37.9,25.3,30.34,WNW,293,1.8,3.8,60,0.00,,,0.00,WUHU216HW,2013-01-10 10:10:00,
2013-01-10 05:14:00,37.9,25.3,30.34,North,0,2.2,4.7,60,0.00,,,0.00,WUHU216HW,2013-01-10 10:14:00,
2013-01-10 05:15:00,37.9,25.3,30.34,WNW,293,2.2,4.7,60,0.00,,,0.00,WUHU216HW,2013-01-10 10:15:00,
2013-01-10 05:19:00,37.7,25.1,30.34,WNW,293,2.7,4.7,60,0.00,,,0.00,WUHU216HW,2013-01-10 10:19:00,
2013-01-10 05:20:00,37.5,24.9,30.34,WNW,293,3.6,4.7,60,0.00,,,0.00,WUHU216HW,2013-01-10 10:20:00,
2013-01-10 05:21:00,37.5,24.9,30.34,WNW,293,3.6,4.7,60,0.00,,,0.00,WUHU216HW,2013-01-10 10:21:00,
2013-01-10 05:24:00,37.5,24.9,30.34,West,270,5.4,8.5,60,0.00,,,0.00,WUHU216HW,2013-01-10 10:24:00,
2013-01-10 05:25:00,37.5,25.3,30.34,WNW,293,2.5,8.5,61,0.00,,,0.00,WUHU216HW,2013-01-10 10:25:00,
2013-01-10 05:26:00,37.5,25.3,30.34,WNW,293,2.5,8.5,61,0.00,,,0.00,WUHU216HW,2013-01-10 10:26:00,
2013-01-10 05:29:00,37.9,25.7,30.35,North,0,3.4,8.5,61,0.00,,,0.00,WUHU216HW,2013-01-10 10:29:00,
2013-01-10 05:31:00,37.9,25.7,30.35,WSW,248,0.7,8.5,61,0.00,,,0.00,WUHU216HW,2013-01-10 10:31:00,
2013-01-10 05:34:00,37.7,25.5,30.35,SSE,158,2.5,5.8,61,0.00,,,0.00,WUHU216HW,2013-01-10 10:34:00,
2013-01-10 05:36:00,37.7,25.5,30.35,SSE,158,1.6,5.8,61,0.00,,,0.00,WUHU216HW,2013-01-10 10:36:00,
2013-01-10 05:39:00,37.5,25.3,30.36,SSE,158,0.0,2.5,61,0.00,,,0.00,WUHU216HW,2013-01-10 10:39:00,
2013-01-10 05:41:00,37.5,25.3,30.36,SSE,158,0.4,2.5,61,0.00,,,0.00,WUHU216HW,2013-01-10 10:41:00,
2013-01-10 05:44:00,37.5,25.3,30.36,West,270,3.6,3.8,61,0.00,,,0.00,WUHU216HW,2013-01-10 10:44:00,
2013-01-10 05:45:00,37.5,25.3,30.36,West,270,3.6,3.8,61,0.00,,,0.00,WUHU216HW,2013-01-10 10:45:00,
2013-01-10 05:46:00,37.5,25.3,30.36,WNW,293,1.1,3.8,61,0.00,,,0.00,WUHU216HW,2013-01-10 10:46:00,
2013-01-10 05:49:00,37.3,25.1,30.36,SSW,203,0.9,3.8,61,0.00,,,0.00,WUHU216HW,2013-01-10 10:49:00,
2013-01-10 05:50:00,37.3,25.1,30.36,SSW,203,0.9,3.8,61,0.00,,,0.00,WUHU216HW,2013-01-10 10:50:00,
2013-01-10 05:51:00,37.3,25.1,30.36,NW,315,3.4,3.8,61,0.00,,,0.00,WUHU216HW,2013-01-10 10:51:00,
2013-01-10 05:52:00,37.3,25.1,30.36,West,270,2.5,3.8,61,0.00,,,0.00,WUHU216HW,2013-01-10 10:52:00,
2013-01-10 05:54:00,37.2,25.4,30.36,WNW,293,2.5,3.4,62,0.00,,,0.00,WUHU216HW,2013-01-10 10:54:00,
2013-01-10 05:55:00,37.2,25.4,30.36,WNW,293,2.5,3.4,62,0.00,,,0.00,WUHU216HW,2013-01-10 10:55:00,
2013-01-10 05:56:00,37.2,25.4,30.37,NW,315,0.7,3.4,62,0.00,,,0.00,WUHU216HW,2013-01-10 10:56:00,
2013-01-10 05:57:00,37.0,25.3,30.36,NW,315,0.7,3.4,62,0.00,,,0.00,WUHU216HW,2013-01-10 10:57:00,
2013-01-10 06:00:00,36.8,25.1,30.37,West,270,1.6,3.4,62,0.00,,,0.00,WUHU216HW,2013-01-10 11:00:00,
2013-01-10 06:01:00,36.8,25.1,30.36,WNW,293,3.1,3.1,62,0.00,,,0.00,WUHU216HW,2013-01-10 11:01:00,
2013-01-10 06:02:00,36.6,24.9,30.37,NNW,338,2.2,3.1,62,0.00,,,0.00,WUHU216HW,2013-01-10 11:02:00,
2013-01-10 06:05:00,36.4,24.7,30.37,WSW,248,6.3,6.3,62,0.00,,,0.00,WUHU216HW,2013-01-10 11:05:00,
2013-01-10 06:06:00,36.4,24.7,30.37,West,270,5.8,6.3,62,0.00,,,0.00,WUHU216HW,2013-01-10 11:06:00,
2013-01-10 06:07:00,36.4,24.7,30.36,WNW,293,3.8,6.3,62,0.00,,,0.00,WUHU216HW,2013-01-10 11:07:00,
2013-01-10 06:10:00,36.4,24.7,30.37,WNW,293,4.0,6.3,62,0.00,,,0.00,WUHU216HW,2013-01-10 11:10:00,
2013-01-10 06:11:00,36.4,24.7,30.36,WNW,293,2.0,6.3,62,0.00,,,0.00,WUHU216HW,2013-01-10 11:11:00,
2013-01-10 06:12:00,36.4,24.7,30.36,WNW,293,2.7,6.3,62,0.00,,,0.00,WUHU216HW,2013-01-10 11:12:00,
2013-01-10 06:15:00,36.3,24.6,30.37,WNW,293,2.9,5.8,62,0.00,,,0.00,WUHU216HW,2013-01-10 11:15:00,
2013-01-10 06:17:00,36.3,24.6,30.37,WNW,293,3.4,4.0,62,0.00,,,0.00,WUHU216HW,2013-01-10 11:17:00,
2013-01-10 06:20:00,36.1,24.4,30.37,WNW,293,3.1,3.4,62,0.00,,,0.00,WUHU216HW,2013-01-10 11:20:00,
2013-01-10 06:22:00,36.1,24.8,30.37,WNW,293,3.4,3.4,63,0.00,,,0.00,WUHU216HW,2013-01-10 11:22:00,
2013-01-10 06:25:00,36.1,24.8,30.37,WNW,293,3.6,6.3,63,0.00,,,0.00,WUHU216HW,2013-01-10 11:25:00,
2013-01-10 06:26:00,36.1,24.8,30.37,WNW,293,3.6,6.3,63,0.00,,,0.00,WUHU216HW,2013-01-10 11:26:00,
2013-01-10 06:27:00,36.3,25.0,30.37,WNW,293,6.0,6.3,63,0.00,,,0.00,WUHU216HW,2013-01-10 11:27:00,
2013-01-10 06:28:00,36.3,25.0,30.37,WNW,293,6.0,6.3,63,0.00,,,0.00,WUHU216HW,2013-01-10 11:28:00,
2013-01-10 06:30:00,36.6,25.3,30.37,WNW,293,4.5,6.3,63,0.00,,,0.00,WUHU216HW,2013-01-10 11:30:00,
2013-01-10 06:31:00,36.6,25.3,30.37,WNW,293,4.5,6.3,63,0.00,,,0.00,WUHU216HW,2013-01-10 11:31:00,
2013-01-10 06:32:00,36.8,25.5,30.38,NNW,338,1.6,6.3,63,0.00,,,0.00,WUHU216HW,2013-01-10 11:32:00,
2013-01-10 06:33:00,36.8,25.5,30.38,NNW,338,1.6,6.3,63,0.00,,,0.00,WUHU216HW,2013-01-10 11:33:00,
2013-01-10 06:36:00,36.8,25.5,30.38,West,270,4.7,6.0,63,0.00,,,0.00,WUHU216HW,2013-01-10 11:36:00,
2013-01-10 06:37:00,36.8,25.5,30.38,SW,225,4.3,5.4,63,0.00,,,0.00,WUHU216HW,2013-01-10 11:37:00,
2013-01-10 06:38:00,36.8,25.5,30.38,NNW,338,3.4,5.4,63,0.00,,,0.00,WUHU216HW,2013-01-10 11:38:00,
2013-01-10 06:41:00,36.8,25.5,30.38,WNW,293,0.4,5.4,63,0.00,,,0.00,WUHU216HW,2013-01-10 11:41:00,
2013-01-10 06:42:00,36.8,25.5,30.38,North,0,1.3,5.4,63,0.00,,,0.00,WUHU216HW,2013-01-10 11:42:00,
2013-01-10 06:43:00,36.8,25.5,30.38,WNW,293,1.6,5.4,63,0.00,,,0.00,WUHU216HW,2013-01-10 11:43:00,
2013-01-10 06:46:00,36.6,24.9,30.38,WNW,293,3.8,4.5,62,0.00,,,0.00,WUHU216HW,2013-01-10 11:46:00,
2013-01-10 06:47:00,36.4,24.7,30.38,West,270,4.0,4.5,62,0.00,,,0.00,WUHU216HW,2013-01-10 11:47:00,
2013-01-10 06:48:00,36.4,24.7,30.38,WSW,248,4.0,4.5,62,0.00,,,0.00,WUHU216HW,2013-01-10 11:48:00,
2013-01-10 06:51:00,36.3,25.0,30.38,WNW,293,4.7,7.8,63,0.00,,,0.00,WUHU216HW,2013-01-10 11:51:00,
2013-01-10 06:52:00,36.3,25.0,30.38,WNW,293,4.7,7.8,63,0.00,,,0.00,WUHU216HW,2013-01-10 11:52:00,
2013-01-10 06:53:00,36.3,25.0,30.38,WNW,293,4.0,7.8,63,0.00,,,0.00,WUHU216HW,2013-01-10 11:53:00,
2013-01-10 06:54:00,36.3,25.0,30.38,West,270,2.9,7.8,63,0.00,,,0.00,WUHU216HW,2013-01-10 11:54:00,
2013-01-10 06:56:00,36.4,25.1,30.38,WNW,293,5.4,7.8,63,0.00,,,0.00,WUHU216HW,2013-01-10 11:56:00,
2013-01-10 06:57:00,36.4,25.1,30.38,WNW,293,5.4,7.8,63,0.00,,,0.00,WUHU216HW,2013-01-10 11:57:00,
2013-01-10 06:58:00,36.3,25.0,30.38,NW,315,3.6,7.8,63,0.00,,,0.00,WUHU216HW,2013-01-10 11:58:00,
2013-01-10 06:59:00,36.3,25.0,30.39,West,270,4.0,7.8,63,0.00,,,0.00,WUHU216HW,2013-01-10 11:59:00,
2013-01-10 07:01:00,36.3,25.0,30.39,NNW,338,4.3,8.3,63,0.00,,,0.00,WUHU216HW,2013-01-10 12:01:00,
2013-01-10 07:02:00,36.3,25.0,30.38,WSW,248,6.5,8.3,63,0.00,,,0.00,WUHU216HW,2013-01-10 12:02:00,
2013-01-10 07:03:00,36.3,25.4,30.39,West,270,6.3,8.3,64,0.00,,,0.00,WUHU216HW,2013-01-10 12:03:00,
2013-01-10 07:04:00,36.3,25.4,30.39,WNW,293,5.4,8.3,64,0.00,,,0.00,WUHU216HW,2013-01-10 12:04:00,
2013-01-10 07:07:00,36.8,25.8,30.39,WNW,293,2.2,8.3,64,0.00,,,0.00,WUHU216HW,2013-01-10 12:07:00,
2013-01-10 07:08:00,36.8,25.5,30.39,WNW,293,3.6,8.3,63,0.00,,,0.00,WUHU216HW,2013-01-10 12:08:00,
2013-01-10 07:09:00,36.8,25.5,30.39,WNW,293,4.9,8.3,63,0.00,,,0.00,WUHU216HW,2013-01-10 12:09:00,
2013-01-10 07:12:00,36.8,25.5,30.39,WNW,293,5.6,6.3,63,0.00,,,0.00,WUHU216HW,2013-01-10 12:12:00,
2013-01-10 07:13:00,36.8,25.5,30.40,WSW,248,2.2,6.0,63,0.00,,,0.00,WUHU216HW,2013-01-10 12:13:00,
2013-01-10 07:14:00,36.8,25.5,30.40,WNW,293,3.8,6.0,63,0.00,,,0.00,WUHU216HW,2013-01-10 12:14:00,
2013-01-10 07:17:00,36.6,25.3,30.40,NW,315,4.0,5.6,63,0.00,,,0.00,WUHU216HW,2013-01-10 12:17:00,
2013-01-10 07:18:00,36.4,25.1,30.40,North,0,3.6,5.6,63,0.00,,,0.00,WUHU216HW,2013-01-10 12:18:00,
2013-01-10 07:19:00,36.4,25.1,30.40,NNW,338,3.1,5.6,63,0.00,,,0.00,WUHU216HW,2013-01-10 12:19:00,
2013-01-10 07:22:00,36.3,25.4,30.40,WNW,293,4.3,5.6,64,0.00,,,0.00,WUHU216HW,2013-01-10 12:22:00,
2013-01-10 07:24:00,36.3,25.4,30.40,West,270,2.5,5.6,64,0.00,,,0.00,WUHU216HW,2013-01-10 12:24:00,
2013-01-10 07:27:00,36.4,25.5,30.40,WNW,293,7.2,7.2,64,0.00,,,0.00,WUHU216HW,2013-01-10 12:27:00,
2013-01-10 07:29:00,36.4,25.5,30.40,WNW,293,6.9,7.2,64,0.00,,,0.00,WUHU216HW,2013-01-10 12:29:00,
2013-01-10 07:30:00,36.6,25.6,30.40,WNW,293,3.8,7.2,64,0.00,,,0.00,WUHU216HW,2013-01-10 12:30:00,
2013-01-10 07:32:00,36.8,25.5,30.41,NW,315,3.8,7.6,63,0.00,,,0.00,WUHU216HW,2013-01-10 12:32:00,
2013-01-10 07:33:00,36.8,25.5,30.41,NW,315,3.8,7.6,63,0.00,,,0.00,WUHU216HW,2013-01-10 12:33:00,
2013-01-10 07:34:00,36.8,25.8,30.41,NW,315,6.3,7.6,64,0.00,,,0.00,WUHU216HW,2013-01-10 12:34:00,
2013-01-10 07:35:00,36.8,25.5,30.41,NNW,338,6.5,7.6,63,0.00,,,0.00,WUHU216HW,2013-01-10 12:35:00,
2013-01-10 07:37:00,36.8,25.5,30.41,NNW,338,4.5,7.6,63,0.00,,,0.00,WUHU216HW,2013-01-10 12:37:00,
2013-01-10 07:38:00,36.8,25.5,30.41,WNW,293,4.7,7.6,63,0.00,,,0.00,WUHU216HW,2013-01-10 12:38:00,
2013-01-10 07:39:00,36.8,25.5,30.41,WNW,293,4.7,7.6,63,0.00,,,0.00,WUHU216HW,2013-01-10 12:39:00,
2013-01-10 07:40:00,36.8,25.5,30.41,NW,315,8.9,8.9,63,0.00,,,0.00,WUHU216HW,2013-01-10 12:40:00,
2013-01-10 07:42:00,36.8,25.5,30.41,NW,315,4.5,8.9,63,0.00,,,0.00,WUHU216HW,2013-01-10 12:42:00,
2013-01-10 07:43:00,37.0,25.6,30.41,West,270,6.3,8.9,63,0.00,,,0.00,WUHU216HW,2013-01-10 12:43:00,
2013-01-10 07:44:00,37.0,25.6,30.41,NW,315,3.6,8.9,63,0.00,,,0.00,WUHU216HW,2013-01-10 12:44:00,
2013-01-10 07:45:00,37.0,25.6,30.41,NNW,338,3.1,8.9,63,0.00,,,0.00,WUHU216HW,2013-01-10 12:45:00,
2013-01-10 07:48:00,37.0,25.6,30.41,NNW,338,4.7,8.9,63,0.00,,,0.00,WUHU216HW,2013-01-10 12:48:00,
2013-01-10 07:49:00,37.0,25.6,30.42,NW,315,9.4,9.4,63,0.00,,,0.00,WUHU216HW,2013-01-10 12:49:00,
2013-01-10 07:50:00,37.2,25.8,30.42,WNW,293,2.7,9.4,63,0.00,,,0.00,WUHU216HW,2013-01-10 12:50:00,
2013-01-10 07:53:00,37.3,25.9,30.42,NW,315,6.0,9.4,63,0.00,,,0.00,WUHU216HW,2013-01-10 12:53:00,
2013-01-10 07:54:00,37.3,25.9,30.42,West,270,4.7,9.4,63,0.00,,,0.00,WUHU216HW,2013-01-10 12:54:00,
2013-01-10 07:55:00,37.5,26.1,30.43,NNW,338,4.0,9.4,63,0.00,,,0.00,WUHU216HW,2013-01-10 12:55:00,
2013-01-10 07:58:00,37.5,26.1,30.43,West,270,5.1,9.4,63,0.00,,,0.00,WUHU216HW,2013-01-10 12:58:00,
2013-01-10 07:59:00,37.5,26.1,30.43,NW,315,1.3,7.4,63,0.00,,,0.00,WUHU216HW,2013-01-10 12:59:00,
2013-01-10 08:00:00,37.5,26.1,30.44,North,0,2.5,7.4,63,0.00,,,0.00,WUHU216HW,2013-01-10 13:00:00,
2013-01-10 08:01:00,37.5,26.1,30.44,NNW,338,4.0,7.4,63,0.00,,,0.00,WUHU216HW,2013-01-10 13:01:00,
2013-01-10 08:03:00,37.5,26.1,30.44,WNW,293,2.9,7.4,63,0.00,,,0.00,WUHU216HW,2013-01-10 13:03:00,
2013-01-10 08:04:00,37.5,26.1,30.44,NNW,338,5.4,7.4,63,0.00,,,0.00,WUHU216HW,2013-01-10 13:04:00,
2013-01-10 08:05:00,37.5,26.1,30.44,North,0,4.3,7.4,63,0.00,,,0.00,WUHU216HW,2013-01-10 13:05:00,
2013-01-10 08:06:00,37.5,26.1,30.44,North,0,2.7,7.4,63,0.00,,,0.00,WUHU216HW,2013-01-10 13:06:00,
2013-01-10 08:08:00,37.7,26.3,30.45,NNW,338,3.4,6.5,63,0.00,,,0.00,WUHU216HW,2013-01-10 13:08:00,
2013-01-10 08:09:00,37.7,26.3,30.45,NNW,338,3.6,6.5,63,0.00,,,0.00,WUHU216HW,2013-01-10 13:09:00,
2013-01-10 08:10:00,37.7,25.9,30.45,North,0,3.4,6.5,62,0.00,,,0.00,WUHU216HW,2013-01-10 13:10:00,
2013-01-10 08:11:00,37.7,25.9,30.45,NNW,338,2.2,6.5,62,0.00,,,0.00,WUHU216HW,2013-01-10 13:11:00,
2013-01-10 08:13:00,37.7,25.9,30.45,NNW,338,4.5,6.5,62,0.00,,,0.00,WUHU216HW,2013-01-10 13:13:00,
2013-01-10 08:14:00,37.9,26.1,30.45,NNW,338,4.9,6.5,62,0.00,,,0.00,WUHU216HW,2013-01-10 13:14:00,
2013-01-10 08:15:00,37.9,26.1,30.45,NNW,338,7.2,7.2,62,0.00,,,0.00,WUHU216HW,2013-01-10 13:15:00,
2013-01-10 08:16:00,37.9,26.1,30.45,North,0,3.8,7.2,62,0.00,,,0.00,WUHU216HW,2013-01-10 13:16:00,
2013-01-10 08:18:00,37.8,26.1,30.44,NNW,338,4.3,7.2,62,0.00,,,0.00,WUHU216HW,2013-01-10 13:18:00,
2013-01-10 08:19:00,37.8,26.0,30.44,NNW,338,6.0,7.2,62,0.00,,,0.00,WUHU216HW,2013-01-10 13:19:00,
2013-01-10 08:20:00,38.0,26.2,30.44,NNW,338,4.3,7.2,62,0.00,,,0.00,WUHU216HW,2013-01-10 13:20:00,
2013-01-10 08:21:00,38.0,25.8,30.44,NNW,338,4.3,7.2,61,0.00,,,0.00,WUHU216HW,2013-01-10 13:21:00,
2013-01-10 08:23:00,38.0,25.8,30.44,North,0,4.5,7.2,61,0.00,,,0.00,WUHU216HW,2013-01-10 13:23:00,
2013-01-10 08:25:00,38.0,25.8,30.44,North,0,5.4,6.0,61,0.00,,,0.00,WUHU216HW,2013-01-10 13:25:00,
2013-01-10 08:26:00,38.1,25.9,30.45,North,0,2.2,6.0,61,0.00,,,0.00,WUHU216HW,2013-01-10 13:26:00,
2013-01-10 08:29:00,38.1,25.9,30.44,NW,315,3.8,6.0,61,0.00,,,0.00,WUHU216HW,2013-01-10 13:29:00,
2013-01-10 08:30:00,38.1,25.9,30.44,NW,315,4.5,5.4,61,0.00,,,0.00,WUHU216HW,2013-01-10 13:30:00,
2013-01-10 08:32:00,38.1,25.9,30.44,NW,315,4.5,5.4,61,0.00,,,0.00,WUHU216HW,2013-01-10 13:32:00,
2013-01-10 08:34:00,38.1,25.9,30.44,NW,315,4.5,5.4,61,0.00,,,0.00,WUHU216HW,2013-01-10 13:34:00,
2013-01-10 08:35:00,38.1,25.9,30.44,NW,315,4.5,4.5,61,0.00,,,0.00,WUHU216HW,2013-01-10 13:35:00,
2013-01-10 08:37:00,38.1,25.9,30.44,NW,315,4.5,4.5,61,0.00,,,0.00,WUHU216HW,2013-01-10 13:37:00,
2013-01-10 08:59:00,40.7,26.7,30.46,North,0,4.7,4.7,57,0.00,,,0.00,WUHU216HW,2013-01-10 13:59:00,
2013-01-10 09:04:00,40.7,27.1,30.46,NNW,338,3.1,6.0,58,0.00,,,0.00,WUHU216HW,2013-01-10 14:04:00,
2013-01-10 09:09:00,41.1,26.6,30.46,North,0,3.1,6.5,56,0.00,,,0.00,WUHU216HW,2013-01-10 14:09:00,
2013-01-10 09:14:00,40.8,26.4,30.47,North,0,3.6,6.5,56,0.00,,,0.00,WUHU216HW,2013-01-10 14:14:00,
2013-01-10 09:15:00,40.8,26.4,30.47,West,270,2.7,6.5,56,0.00,,,0.00,WUHU216HW,2013-01-10 14:15:00,
2013-01-10 09:19:00,41.0,26.6,30.47,NW,315,4.7,5.1,56,0.00,,,0.00,WUHU216HW,2013-01-10 14:19:00,
2013-01-10 09:20:00,41.0,27.0,30.48,NNW,338,4.7,5.1,57,0.00,,,0.00,WUHU216HW,2013-01-10 14:20:00,
2013-01-10 09:24:00,40.8,26.3,30.47,NNW,338,6.5,6.5,56,0.00,,,0.00,WUHU216HW,2013-01-10 14:24:00,
2013-01-10 09:25:00,41.0,27.0,30.47,WNW,293,5.6,6.5,57,0.00,,,0.00,WUHU216HW,2013-01-10 14:25:00,
2013-01-10 09:29:00,41.2,27.1,30.47,North,0,4.0,6.7,57,0.00,,,0.00,WUHU216HW,2013-01-10 14:29:00,
2013-01-10 09:30:00,41.2,27.1,30.47,North,0,4.0,6.7,57,0.00,,,0.00,WUHU216HW,2013-01-10 14:30:00,
2013-01-10 09:34:00,41.2,26.7,30.47,NW,315,7.6,10.1,56,0.00,,,0.00,WUHU216HW,2013-01-10 14:34:00,
2013-01-10 09:35:00,41.2,26.7,30.47,NW,315,7.6,10.1,56,0.00,,,0.00,WUHU216HW,2013-01-10 14:35:00,
2013-01-10 09:36:00,41.2,26.2,30.47,WNW,293,7.6,10.1,55,0.00,,,0.00,WUHU216HW,2013-01-10 14:36:00,
2013-01-10 09:40:00,40.8,26.3,30.47,NW,315,4.5,10.1,56,0.00,,,0.00,WUHU216HW,2013-01-10 14:40:00,
2013-01-10 09:41:00,40.8,26.3,30.47,North,0,2.7,10.1,56,0.00,,,0.00,WUHU216HW,2013-01-10 14:41:00,
2013-01-10 09:45:00,40.7,26.3,30.47,WNW,293,6.0,7.6,56,0.00,,,0.00,WUHU216HW,2013-01-10 14:45:00,
2013-01-10 09:46:00,40.9,26.5,30.47,NNW,338,4.0,7.6,56,0.00,,,0.00,WUHU216HW,2013-01-10 14:46:00,
2013-01-10 09:50:00,41.3,26.8,30.48,West,270,4.7,7.6,56,0.00,,,0.00,WUHU216HW,2013-01-10 14:50:00,
2013-01-10 09:51:00,41.4,26.9,30.48,NNW,338,4.0,7.6,56,0.00,,,0.00,WUHU216HW,2013-01-10 14:51:00,
2013-01-10 09:55:00,41.8,26.8,30.48,NW,315,3.4,8.5,55,0.00,,,0.00,WUHU216HW,2013-01-10 14:55:00,
2013-01-10 09:56:00,41.8,26.8,30.48,North,0,3.4,8.5,55,0.00,,,0.00,WUHU216HW,2013-01-10 14:56:00,
2013-01-10 10:00:00,41.8,26.4,30.48,North,0,3.1,8.5,54,0.00,,,0.00,WUHU216HW,2013-01-10 15:00:00,
2013-01-10 10:01:00,41.8,26.4,30.48,North,0,4.3,6.0,54,0.00,,,0.00,WUHU216HW,2013-01-10 15:01:00,
2013-01-10 10:05:00,42.2,26.7,30.48,North,0,8.1,8.1,54,0.00,,,0.00,WUHU216HW,2013-01-10 15:05:00,
2013-01-10 10:06:00,42.5,27.0,30.48,NW,315,4.9,8.1,54,0.00,,,0.00,WUHU216HW,2013-01-10 15:06:00,
2013-01-10 10:10:00,43.6,28.0,30.48,NNW,338,9.2,9.2,54,0.00,,,0.00,WUHU216HW,2013-01-10 15:10:00,
2013-01-10 10:11:00,43.6,28.0,30.48,NNW,338,9.2,9.2,54,0.00,,,0.00,WUHU216HW,2013-01-10 15:11:00,
2013-01-10 10:12:00,43.6,27.5,30.48,North,0,6.7,9.2,53,0.00,,,0.00,WUHU216HW,2013-01-10 15:12:00,
2013-01-10 10:15:00,42.8,25.9,30.49,North,0,8.3,9.2,51,0.00,,,0.00,WUHU216HW,2013-01-10 15:15:00,
2013-01-10 10:16:00,42.8,25.9,30.49,North,0,8.3,9.2,51,0.00,,,0.00,WUHU216HW,2013-01-10 15:16:00,
2013-01-10 10:17:00,42.8,26.4,30.48,North,0,5.4,9.2,52,0.00,,,0.00,WUHU216HW,2013-01-10 15:17:00,
2013-01-10 10:20:00,43.0,26.6,30.49,NW,315,3.8,8.3,52,0.00,,,0.00,WUHU216HW,2013-01-10 15:20:00,
2013-01-10 10:21:00,43.0,26.6,30.49,NW,315,3.8,8.3,52,0.00,,,0.00,WUHU216HW,2013-01-10 15:21:00,
2013-01-10 10:22:00,43.1,27.1,30.49,North,0,3.1,8.3,53,0.00,,,0.00,WUHU216HW,2013-01-10 15:22:00,
2013-01-10 10:26:00,44.2,27.7,30.49,North,0,4.7,6.3,52,0.00,,,0.00,WUHU216HW,2013-01-10 15:26:00,
2013-01-10 10:27:00,44.0,26.5,30.48,NNW,338,5.4,6.3,50,0.00,,,0.00,WUHU216HW,2013-01-10 15:27:00,
2013-01-10 10:31:00,43.9,26.4,30.48,North,0,3.6,5.8,50,0.00,,,0.00,WUHU216HW,2013-01-10 15:31:00,
2013-01-10 10:32:00,43.7,26.2,30.48,North,0,4.0,5.8,50,0.00,,,0.00,WUHU216HW,2013-01-10 15:32:00,
2013-01-10 10:36:00,43.7,26.7,30.48,NNW,338,4.7,8.3,51,0.00,,,0.00,WUHU216HW,2013-01-10 15:36:00,
2013-01-10 10:37:00,43.9,26.9,30.48,NNW,338,3.1,8.3,51,0.00,,,0.00,WUHU216HW,2013-01-10 15:37:00,
2013-01-10 10:41:00,44.0,26.5,30.48,North,0,3.4,8.3,50,0.00,,,0.00,WUHU216HW,2013-01-10 15:41:00,
2013-01-10 10:42:00,43.9,26.4,30.48,North,0,2.9,6.5,50,0.00,,,0.00,WUHU216HW,2013-01-10 15:42:00,
2013-01-10 10:46:00,43.9,26.4,30.48,WNW,293,4.3,5.8,50,0.00,,,0.00,WUHU216HW,2013-01-10 15:46:00,
2013-01-10 10:47:00,43.8,25.9,30.48,NW,315,3.4,5.8,49,0.00,,,0.00,WUHU216HW,2013-01-10 15:47:00,
2013-01-10 10:51:00,44.1,26.6,30.48,NW,315,6.0,6.0,50,0.00,,,0.00,WUHU216HW,2013-01-10 15:51:00,
2013-01-10 10:52:00,44.1,26.6,30.48,North,0,4.7,6.0,50,0.00,,,0.00,WUHU216HW,2013-01-10 15:52:00,
2013-01-10 10:56:00,43.8,25.8,30.48,NW,315,10.5,10.5,49,0.00,,,0.00,WUHU216HW,2013-01-10 15:56:00,
2013-01-10 10:57:00,43.8,25.8,30.48,North,0,6.9,10.5,49,0.00,,,0.00,WUHU216HW,2013-01-10 15:57:00,
2013-01-10 11:01:00,43.9,26.4,30.47,North,0,6.3,10.5,50,0.00,,,0.00,WUHU216HW,2013-01-10 16:01:00,
2013-01-10 11:02:00,44.1,26.1,30.47,WNW,293,7.4,10.5,49,0.00,,,0.00,WUHU216HW,2013-01-10 16:02:00,
2013-01-10 11:03:00,44.1,25.6,30.47,NNW,338,6.9,10.5,48,0.00,,,0.00,WUHU216HW,2013-01-10 16:03:00,
2013-01-10 11:06:00,43.6,24.6,30.47,North,0,5.8,7.4,47,0.00,,,0.00,WUHU216HW,2013-01-10 16:06:00,
2013-01-10 11:07:00,43.6,24.6,30.47,North,0,5.8,7.4,47,0.00,,,0.00,WUHU216HW,2013-01-10 16:07:00,
2013-01-10 11:08:00,43.4,24.4,30.46,NW,315,8.1,8.1,47,0.00,,,0.00,WUHU216HW,2013-01-10 16:08:00,
2013-01-10 11:11:00,43.2,24.2,30.46,NNW,338,4.7,11.4,47,0.00,,,0.00,WUHU216HW,2013-01-10 16:11:00,
2013-01-10 11:12:00,43.2,24.7,30.46,NNW,338,8.5,11.4,48,0.00,,,0.00,WUHU216HW,2013-01-10 16:12:00,
2013-01-10 11:13:00,43.2,24.2,30.46,North,0,7.4,11.4,47,0.00,,,0.00,WUHU216HW,2013-01-10 16:13:00,
2013-01-10 11:17:00,43.2,24.7,30.46,NW,315,7.6,11.4,48,0.00,,,0.00,WUHU216HW,2013-01-10 16:17:00,
2013-01-10 11:18:00,43.0,23.5,30.46,North,0,4.5,11.4,46,0.00,,,0.00,WUHU216HW,2013-01-10 16:18:00,
2013-01-10 11:22:00,43.2,24.2,30.46,NW,315,4.7,8.9,47,0.00,,,0.00,WUHU216HW,2013-01-10 16:22:00,
2013-01-10 11:23:00,43.2,24.2,30.46,NW,315,4.7,8.9,47,0.00,,,0.00,WUHU216HW,2013-01-10 16:23:00,
2013-01-10 11:27:00,42.9,23.5,30.46,NNW,338,5.1,9.8,46,0.00,,,0.00,WUHU216HW,2013-01-10 16:27:00,
2013-01-10 11:28:00,42.9,23.5,30.46,NNW,338,5.1,9.8,46,0.00,,,0.00,WUHU216HW,2013-01-10 16:28:00,
2013-01-10 11:32:00,42.9,24.0,30.46,North,0,4.5,9.8,47,0.00,,,0.00,WUHU216HW,2013-01-10 16:32:00,
2013-01-10 11:33:00,42.9,24.0,30.46,North,0,4.5,9.8,47,0.00,,,0.00,WUHU216HW,2013-01-10 16:33:00,
2013-01-10 11:34:00,42.9,24.0,30.46,NNW,338,6.9,7.6,47,0.00,,,0.00,WUHU216HW,2013-01-10 16:34:00,
2013-01-10 11:37:00,43.1,23.6,30.46,North,0,7.8,7.8,46,0.00,,,0.00,WUHU216HW,2013-01-10 16:37:00,
2013-01-10 11:38:00,43.1,23.6,30.46,North,0,7.8,7.8,46,0.00,,,0.00,WUHU216HW,2013-01-10 16:38:00,
2013-01-10 11:39:00,42.9,23.4,30.46,North,0,8.1,8.1,46,0.00,,,0.00,WUHU216HW,2013-01-10 16:39:00,
2013-01-10 11:42:00,43.3,24.3,30.45,North,0,3.1,8.1,47,0.00,,,0.00,WUHU216HW,2013-01-10 16:42:00,
2013-01-10 11:43:00,43.3,24.3,30.45,North,0,3.1,8.1,47,0.00,,,0.00,WUHU216HW,2013-01-10 16:43:00,
2013-01-10 11:44:00,43.5,24.5,30.45,NW,315,3.4,8.1,47,0.00,,,0.00,WUHU216HW,2013-01-10 16:44:00,
2013-01-10 11:47:00,43.7,24.1,30.45,NW,315,5.6,8.1,46,0.00,,,0.00,WUHU216HW,2013-01-10 16:47:00,
2013-01-10 11:48:00,43.7,24.1,30.45,NW,315,5.6,8.1,46,0.00,,,0.00,WUHU216HW,2013-01-10 16:48:00,
2013-01-10 11:49:00,43.7,24.1,30.45,NW,315,5.4,8.1,46,0.00,,,0.00,WUHU216HW,2013-01-10 16:49:00,
2013-01-10 11:53:00,43.8,23.7,30.45,North,0,6.0,8.1,45,0.00,,,0.00,WUHU216HW,2013-01-10 16:53:00,
2013-01-10 11:54:00,43.7,23.6,30.45,NNE,23,5.8,8.1,45,0.00,,,0.00,WUHU216HW,2013-01-10 16:54:00,
2013-01-10 11:58:00,43.5,23.4,30.44,NW,315,8.5,8.5,45,0.00,,,0.00,WUHU216HW,2013-01-10 16:58:00,
2013-01-10 12:00:00,43.3,23.2,30.44,North,0,4.9,8.5,45,0.00,,,0.00,WUHU216HW,2013-01-10 17:00:00,
2013-01-10 12:03:00,43.3,23.2,30.44,North,0,6.0,8.5,45,0.00,,,0.00,WUHU216HW,2013-01-10 17:03:00,
2013-01-10 12:04:00,43.3,23.2,30.44,North,0,6.0,8.5,45,0.00,,,0.00,WUHU216HW,2013-01-10 17:04:00,
2013-01-10 12:05:00,43.5,23.9,30.44,North,0,8.5,8.5,46,0.00,,,0.00,WUHU216HW,2013-01-10 17:05:00,
2013-01-10 12:08:00,43.4,23.4,30.44,North,0,5.8,8.5,45,0.00,,,0.00,WUHU216HW,2013-01-10 17:08:00,
2013-01-10 12:09:00,43.4,23.4,30.44,North,0,7.4,8.5,45,0.00,,,0.00,WUHU216HW,2013-01-10 17:09:00,
2013-01-10 12:10:00,43.4,23.4,30.44,North,0,4.0,8.5,45,0.00,,,0.00,WUHU216HW,2013-01-10 17:10:00,
2013-01-10 12:13:00,43.6,23.6,30.44,NNW,338,5.8,8.7,45,0.00,,,0.00,WUHU216HW,2013-01-10 17:13:00,
2013-01-10 12:14:00,43.6,23.6,30.44,North,0,4.7,8.7,45,0.00,,,0.00,WUHU216HW,2013-01-10 17:14:00,
2013-01-10 12:16:00,43.6,23.6,30.44,NW,315,6.9,8.7,45,0.00,,,0.00,WUHU216HW,2013-01-10 17:16:00,
2013-01-10 12:18:00,43.7,23.6,30.44,North,0,6.0,8.7,45,0.00,,,0.00,WUHU216HW,2013-01-10 17:18:00,
2013-01-10 12:19:00,43.7,23.6,30.44,North,0,6.0,8.7,45,0.00,,,0.00,WUHU216HW,2013-01-10 17:19:00,
2013-01-10 12:21:00,43.9,23.8,30.44,NW,315,4.5,8.7,45,0.00,,,0.00,WUHU216HW,2013-01-10 17:21:00,
2013-01-10 12:23:00,44.3,24.2,30.44,North,0,4.0,7.8,45,0.00,,,0.00,WUHU216HW,2013-01-10 17:23:00,
2013-01-10 12:24:00,44.3,24.2,30.44,North,0,4.0,7.8,45,0.00,,,0.00,WUHU216HW,2013-01-10 17:24:00,
2013-01-10 12:26:00,44.5,23.8,30.43,North,0,6.3,7.8,44,0.00,,,0.00,WUHU216HW,2013-01-10 17:26:00,
2013-01-10 12:29:00,44.6,23.3,30.43,NNW,338,10.1,10.1,43,0.00,,,0.00,WUHU216HW,2013-01-10 17:29:00,
2013-01-10 12:31:00,44.6,23.9,30.43,NNW,338,3.4,10.1,44,0.00,,,0.00,WUHU216HW,2013-01-10 17:31:00,
2013-01-10 12:34:00,44.6,23.9,30.44,North,0,2.5,10.1,44,0.00,,,0.00,WUHU216HW,2013-01-10 17:34:00,
2013-01-10 12:36:00,44.8,24.1,30.44,NNW,338,5.1,10.1,44,0.00,,,0.00,WUHU216HW,2013-01-10 17:36:00,
2013-01-10 12:39:00,44.6,23.3,30.44,NNW,338,6.9,6.9,43,0.00,,,0.00,WUHU216HW,2013-01-10 17:39:00,
2013-01-10 12:41:00,44.8,23.5,30.44,North,0,6.0,6.9,43,0.00,,,0.00,WUHU216HW,2013-01-10 17:41:00,
2013-01-10 12:44:00,44.6,23.3,30.44,NNW,338,5.4,6.9,43,0.00,,,0.00,WUHU216HW,2013-01-10 17:44:00,
2013-01-10 12:46:00,44.8,23.5,30.44,SW,225,5.1,6.9,43,0.00,,,0.00,WUHU216HW,2013-01-10 17:46:00,
2013-01-10 12:49:00,45.4,24.0,30.44,NW,315,4.7,6.9,43,0.00,,,0.00,WUHU216HW,2013-01-10 17:49:00,
2013-01-10 12:50:00,45.4,24.0,30.44,NW,315,4.7,6.9,43,0.00,,,0.00,WUHU216HW,2013-01-10 17:50:00,
2013-01-10 12:51:00,45.4,24.6,30.44,WNW,293,4.5,6.9,44,0.00,,,0.00,WUHU216HW,2013-01-10 17:51:00,
2013-01-10 12:55:00,45.5,24.1,30.44,WNW,293,5.4,9.4,43,0.00,,,0.00,WUHU216HW,2013-01-10 17:55:00,
2013-01-10 12:56:00,45.7,23.7,30.44,NW,315,14.8,14.8,42,0.00,,,0.00,WUHU216HW,2013-01-10 17:56:00,
2013-01-10 13:00:00,45.4,23.4,30.43,NNW,338,9.4,14.8,42,0.00,,,0.00,WUHU216HW,2013-01-10 18:00:00,
2013-01-10 13:01:00,45.4,23.4,30.44,North,0,5.4,14.8,42,0.00,,,0.00,WUHU216HW,2013-01-10 18:01:00,
2013-01-10 13:05:00,45.4,23.4,30.44,North,0,3.4,14.8,42,0.00,,,0.00,WUHU216HW,2013-01-10 18:05:00,
2013-01-10 13:06:00,45.4,23.4,30.44,North,0,6.3,14.3,42,0.00,,,0.00,WUHU216HW,2013-01-10 18:06:00,
2013-01-10 13:10:00,45.3,23.4,30.44,NNW,338,5.4,10.7,42,0.00,,,0.00,WUHU216HW,2013-01-10 18:10:00,
2013-01-10 13:12:00,45.3,23.4,30.44,NNW,338,4.3,10.7,42,0.00,,,0.00,WUHU216HW,2013-01-10 18:12:00,
2013-01-10 13:15:00,45.6,23.7,30.44,North,0,4.5,6.3,42,0.00,,,0.00,WUHU216HW,2013-01-10 18:15:00,
2013-01-10 13:17:00,45.6,23.7,30.44,NNW,338,6.7,6.7,42,0.00,,,0.00,WUHU216HW,2013-01-10 18:17:00,
2013-01-10 13:20:00,45.8,23.9,30.44,WNW,293,5.8,6.7,42,0.00,,,0.00,WUHU216HW,2013-01-10 18:20:00,
2013-01-10 13:21:00,45.8,23.9,30.44,WNW,293,5.8,6.7,42,0.00,,,0.00,WUHU216HW,2013-01-10 18:21:00,
2013-01-10 13:22:00,45.6,23.1,30.44,NW,315,7.2,7.2,41,0.00,,,0.00,WUHU216HW,2013-01-10 18:22:00,
2013-01-10 13:25:00,45.4,23.5,30.44,North,0,5.6,8.1,42,0.00,,,0.00,WUHU216HW,2013-01-10 18:25:00,
2013-01-10 13:26:00,45.4,23.5,30.44,North,0,5.6,8.1,42,0.00,,,0.00,WUHU216HW,2013-01-10 18:26:00,
2013-01-10 13:28:00,45.4,23.5,30.44,WSW,248,3.4,8.1,42,0.00,,,0.00,WUHU216HW,2013-01-10 18:28:00,
2013-01-10 13:30:00,45.8,24.4,30.44,North,0,4.5,8.1,43,0.00,,,0.00,WUHU216HW,2013-01-10 18:30:00,
2013-01-10 13:31:00,45.8,24.4,30.44,North,0,4.5,8.1,43,0.00,,,0.00,WUHU216HW,2013-01-10 18:31:00,
2013-01-10 13:33:00,46.0,24.0,30.44,NNW,338,4.5,8.1,42,0.00,,,0.00,WUHU216HW,2013-01-10 18:33:00,
2013-01-10 13:35:00,45.6,23.1,30.44,NNE,23,5.1,7.6,41,0.00,,,0.00,WUHU216HW,2013-01-10 18:35:00,
2013-01-10 13:36:00,45.6,23.1,30.44,NNE,23,5.1,7.6,41,0.00,,,0.00,WUHU216HW,2013-01-10 18:36:00,
2013-01-10 13:38:00,45.4,22.3,30.44,North,0,5.4,7.6,40,0.00,,,0.00,WUHU216HW,2013-01-10 18:38:00,
2013-01-10 13:40:00,45.3,23.4,30.44,North,0,4.3,5.6,42,0.00,,,0.00,WUHU216HW,2013-01-10 18:40:00,
2013-01-10 13:41:00,45.3,23.4,30.44,North,0,4.3,5.6,42,0.00,,,0.00,WUHU216HW,2013-01-10 18:41:00,
2013-01-10 13:43:00,45.3,22.8,30.44,NW,315,6.3,6.3,41,0.00,,,0.00,WUHU216HW,2013-01-10 18:43:00,
2013-01-10 13:46:00,45.6,23.1,30.44,NW,315,6.7,7.4,41,0.00,,,0.00,WUHU216HW,2013-01-10 18:46:00,
2013-01-10 13:48:00,45.8,23.8,30.44,North,0,3.4,7.4,42,0.00,,,0.00,WUHU216HW,2013-01-10 18:48:00,
2013-01-10 13:51:00,46.0,23.4,30.44,North,0,4.3,7.4,41,0.00,,,0.00,WUHU216HW,2013-01-10 18:51:00,
2013-01-10 13:53:00,46.0,22.8,30.44,NNE,23,3.8,7.4,40,0.00,,,0.00,WUHU216HW,2013-01-10 18:53:00,
2013-01-10 13:56:00,46.0,23.4,30.44,North,0,2.0,5.4,41,0.00,,,0.00,WUHU216HW,2013-01-10 18:56:00,
2013-01-10 13:58:00,46.2,24.2,30.44,NW,315,3.4,4.3,42,0.00,,,0.00,WUHU216HW,2013-01-10 18:58:00,
2013-01-10 14:01:00,46.5,23.9,30.45,WNW,293,4.0,7.4,41,0.00,,,0.00,WUHU216HW,2013-01-10 19:01:00,
2013-01-10 14:03:00,46.7,24.7,30.45,WNW,293,3.8,7.4,42,0.00,,,0.00,WUHU216HW,2013-01-10 19:03:00,
2013-01-10 14:06:00,46.9,24.2,30.45,WNW,293,7.2,7.4,41,0.00,,,0.00,WUHU216HW,2013-01-10 19:06:00,
2013-01-10 14:08:00,46.9,24.2,30.45,WNW,293,4.5,7.4,41,0.00,,,0.00,WUHU216HW,2013-01-10 19:08:00,
2013-01-10 14:11:00,46.7,24.1,30.45,WNW,293,6.3,7.2,41,0.00,,,0.00,WUHU216HW,2013-01-10 19:11:00,
2013-01-10 14:14:00,46.7,24.1,30.44,WNW,293,5.8,7.2,41,0.00,,,0.00,WUHU216HW,2013-01-10 19:14:00,
2013-01-10 14:16:00,46.7,24.1,30.44,North,0,5.1,6.3,41,0.00,,,0.00,WUHU216HW,2013-01-10 19:16:00,
2013-01-10 14:17:00,46.7,24.1,30.44,North,0,5.1,6.3,41,0.00,,,0.00,WUHU216HW,2013-01-10 19:17:00,
2013-01-10 14:19:00,46.5,23.3,30.44,North,0,4.0,6.3,40,0.00,,,0.00,WUHU216HW,2013-01-10 19:19:00,
2013-01-10 14:21:00,46.5,24.5,30.44,NNW,338,6.3,6.3,42,0.00,,,0.00,WUHU216HW,2013-01-10 19:21:00,
2013-01-10 14:22:00,46.5,24.5,30.44,NNW,338,6.3,6.3,42,0.00,,,0.00,WUHU216HW,2013-01-10 19:22:00,
2013-01-10 14:24:00,46.5,23.3,30.45,NNW,338,4.0,6.3,40,0.00,,,0.00,WUHU216HW,2013-01-10 19:24:00,
2013-01-10 14:26:00,46.2,23.0,30.44,NNW,338,6.7,6.7,40,0.00,,,0.00,WUHU216HW,2013-01-10 19:26:00,
2013-01-10 14:27:00,46.2,23.0,30.44,NNW,338,6.7,6.7,40,0.00,,,0.00,WUHU216HW,2013-01-10 19:27:00,
2013-01-10 14:29:00,46.0,23.4,30.44,NNW,338,4.9,6.7,41,0.00,,,0.00,WUHU216HW,2013-01-10 19:29:00,
2013-01-10 14:32:00,46.0,23.4,30.44,North,0,7.6,7.6,41,0.00,,,0.00,WUHU216HW,2013-01-10 19:32:00,
2013-01-10 14:37:00,46.0,23.4,30.45,North,0,7.6,8.5,41,0.00,,,0.00,WUHU216HW,2013-01-10 19:37:00,
2013-01-10 14:42:00,46.0,23.4,30.45,NNW,338,2.7,8.5,41,0.00,,,0.00,WUHU216HW,2013-01-10 19:42:00,
2013-01-10 14:43:00,46.0,23.4,30.45,NNW,338,2.7,8.5,41,0.00,,,0.00,WUHU216HW,2013-01-10 19:43:00,
2013-01-10 14:47:00,46.3,23.7,30.45,West,270,1.8,3.4,41,0.00,,,0.00,WUHU216HW,2013-01-10 19:47:00,
2013-01-10 14:48:00,46.7,24.7,30.45,NW,315,0.9,3.4,42,0.00,,,0.00,WUHU216HW,2013-01-10 19:48:00,
2013-01-10 14:52:00,48.1,25.9,30.45,WNW,293,6.3,6.3,42,0.00,,,0.00,WUHU216HW,2013-01-10 19:52:00,
2013-01-10 14:53:00,48.7,25.9,30.46,NNW,338,8.5,8.5,41,0.00,,,0.00,WUHU216HW,2013-01-10 19:53:00,
2013-01-10 14:57:00,48.1,24.1,30.46,West,270,3.6,8.5,39,0.00,,,0.00,WUHU216HW,2013-01-10 19:57:00,
2013-01-10 14:58:00,47.8,23.8,30.46,WSW,248,6.5,8.5,39,0.00,,,0.00,WUHU216HW,2013-01-10 19:58:00,
2013-01-10 15:02:00,46.7,23.5,30.45,North,0,2.7,7.2,40,0.00,,,0.00,WUHU216HW,2013-01-10 20:02:00,
2013-01-10 15:03:00,46.5,23.3,30.45,North,0,3.1,7.2,40,0.00,,,0.00,WUHU216HW,2013-01-10 20:03:00,
2013-01-10 15:07:00,46.2,23.6,30.46,NW,315,3.8,7.2,41,0.00,,,0.00,WUHU216HW,2013-01-10 20:07:00,
2013-01-10 15:08:00,46.7,24.1,30.45,West,270,5.1,7.2,41,0.00,,,0.00,WUHU216HW,2013-01-10 20:08:00,
2013-01-10 15:12:00,48.0,24.6,30.46,NNW,338,6.3,9.2,40,0.00,,,0.00,WUHU216HW,2013-01-10 20:12:00,
2013-01-10 15:13:00,48.0,24.0,30.46,North,0,6.9,9.2,39,0.00,,,0.00,WUHU216HW,2013-01-10 20:13:00,
2013-01-10 15:17:00,46.7,23.5,30.46,NW,315,3.4,9.2,40,0.00,,,0.00,WUHU216HW,2013-01-10 20:17:00,
2013-01-10 15:18:00,46.7,23.5,30.46,NW,315,4.9,9.2,40,0.00,,,0.00,WUHU216HW,2013-01-10 20:18:00,
2013-01-10 15:22:00,45.8,23.3,30.46,WNW,293,2.2,6.9,41,0.00,,,0.00,WUHU216HW,2013-01-10 20:22:00,
2013-01-10 15:23:00,45.8,23.3,30.46,NW,315,4.5,5.8,41,0.00,,,0.00,WUHU216HW,2013-01-10 20:23:00,
2013-01-10 15:27:00,45.3,23.4,30.47,North,0,1.8,5.6,42,0.00,,,0.00,WUHU216HW,2013-01-10 20:27:00,
2013-01-10 15:28:00,45.3,23.4,30.47,North,0,1.8,5.6,42,0.00,,,0.00,WUHU216HW,2013-01-10 20:28:00,
2013-01-10 15:32:00,45.1,23.2,30.47,NNW,338,2.0,5.6,42,0.00,,,0.00,WUHU216HW,2013-01-10 20:32:00,
2013-01-10 15:33:00,45.1,23.2,30.47,NNW,338,2.0,5.6,42,0.00,,,0.00,WUHU216HW,2013-01-10 20:33:00,
2013-01-10 15:38:00,44.9,23.0,30.47,NNE,23,1.6,6.5,42,0.00,,,0.00,WUHU216HW,2013-01-10 20:38:00,
2013-01-10 15:43:00,44.5,23.3,30.47,NNW,338,4.3,6.5,43,0.00,,,0.00,WUHU216HW,2013-01-10 20:43:00,
2013-01-10 15:48:00,44.5,23.3,30.47,WNW,293,1.6,8.3,43,0.00,,,0.00,WUHU216HW,2013-01-10 20:48:00,
2013-01-10 15:53:00,44.2,23.6,30.47,North,0,1.1,8.3,44,0.00,,,0.00,WUHU216HW,2013-01-10 20:53:00,
2013-01-10 15:58:00,44.1,23.4,30.47,WNW,293,3.4,4.9,44,0.00,,,0.00,WUHU216HW,2013-01-10 20:58:00,
2013-01-10 16:03:00,43.9,22.6,30.47,North,0,2.9,4.7,43,0.00,,,0.00,WUHU216HW,2013-01-10 21:03:00,
2013-01-10 16:04:00,43.9,23.2,30.47,North,0,4.0,4.7,44,0.00,,,0.00,WUHU216HW,2013-01-10 21:04:00,
2013-01-10 16:08:00,43.7,23.0,30.47,North,0,3.8,4.3,44,0.00,,,0.00,WUHU216HW,2013-01-10 21:08:00,
2013-01-10 16:09:00,43.6,22.9,30.47,North,0,4.5,4.5,44,0.00,,,0.00,WUHU216HW,2013-01-10 21:09:00,
2013-01-10 16:13:00,43.6,22.9,30.47,NNW,338,2.7,6.7,44,0.00,,,0.00,WUHU216HW,2013-01-10 21:13:00,
2013-01-10 16:14:00,43.6,22.9,30.47,NNW,338,2.5,6.7,44,0.00,,,0.00,WUHU216HW,2013-01-10 21:14:00,
2013-01-10 16:18:00,43.4,22.8,30.47,NNW,338,1.8,6.7,44,0.00,,,0.00,WUHU216HW,2013-01-10 21:18:00,
2013-01-10 16:19:00,43.2,22.6,30.48,North,0,0.9,6.7,44,0.00,,,0.00,WUHU216HW,2013-01-10 21:19:00,
2013-01-10 16:23:00,43.2,23.1,30.48,North,0,1.1,3.4,45,0.00,,,0.00,WUHU216HW,2013-01-10 21:23:00,
2013-01-10 16:24:00,43.0,23.0,30.48,NNE,23,2.5,3.4,45,0.00,,,0.00,WUHU216HW,2013-01-10 21:24:00,
2013-01-10 16:25:00,43.0,23.0,30.48,NNE,23,2.5,3.4,45,0.00,,,0.00,WUHU216HW,2013-01-10 21:25:00,
2013-01-10 16:28:00,42.8,22.8,30.48,WNW,293,3.6,4.7,45,0.00,,,0.00,WUHU216HW,2013-01-10 21:28:00,
2013-01-10 16:30:00,42.8,22.8,30.48,NW,315,2.0,4.7,45,0.00,,,0.00,WUHU216HW,2013-01-10 21:30:00,
2013-01-10 16:33:00,42.7,22.7,30.48,NNW,338,1.6,4.7,45,0.00,,,0.00,WUHU216HW,2013-01-10 21:33:00,
2013-01-10 16:35:00,42.7,23.2,30.48,NNW,338,2.9,4.7,46,0.00,,,0.00,WUHU216HW,2013-01-10 21:35:00,
2013-01-10 16:38:00,42.3,22.9,30.48,NW,315,2.5,2.9,46,0.00,,,0.00,WUHU216HW,2013-01-10 21:38:00,
2013-01-10 16:40:00,42.3,22.9,30.48,WNW,293,2.2,2.9,46,0.00,,,0.00,WUHU216HW,2013-01-10 21:40:00,
2013-01-10 16:43:00,41.8,22.4,30.48,West,270,2.2,2.9,46,0.00,,,0.00,WUHU216HW,2013-01-10 21:43:00,
2013-01-10 16:45:00,41.8,23.0,30.48,WSW,248,2.5,2.5,47,0.00,,,0.00,WUHU216HW,2013-01-10 21:45:00,
2013-01-10 16:48:00,41.4,22.6,30.48,WNW,293,3.1,3.1,47,0.00,,,0.00,WUHU216HW,2013-01-10 21:48:00,
2013-01-10 16:50:00,41.2,22.4,30.48,WNW,293,0.7,3.1,47,0.00,,,0.00,WUHU216HW,2013-01-10 21:50:00,
2013-01-10 16:53:00,41.0,22.2,30.48,WSW,248,2.0,3.1,47,0.00,,,0.00,WUHU216HW,2013-01-10 21:53:00,
2013-01-10 16:55:00,40.9,22.2,30.48,WSW,248,0.9,3.1,47,0.00,,,0.00,WUHU216HW,2013-01-10 21:55:00,
2013-01-10 16:59:00,40.6,22.3,30.49,West,270,1.1,2.7,48,0.00,,,0.00,WUHU216HW,2013-01-10 21:59:00,
2013-01-10 17:00:00,40.4,22.1,30.49,WNW,293,2.0,2.7,48,0.00,,,0.00,WUHU216HW,2013-01-10 22:00:00,
2013-01-10 17:01:00,40.4,22.1,30.49,West,270,1.3,2.7,48,0.00,,,0.00,WUHU216HW,2013-01-10 22:01:00,
2013-01-10 17:04:00,40.1,21.9,30.49,West,270,0.9,2.7,48,0.00,,,0.00,WUHU216HW,2013-01-10 22:04:00,
2013-01-10 17:06:00,40.1,21.9,30.49,WNW,293,1.8,2.0,48,0.00,,,0.00,WUHU216HW,2013-01-10 22:06:00,
2013-01-10 17:09:00,39.7,22.0,30.49,NNW,338,0.4,2.0,49,0.00,,,0.00,WUHU216HW,2013-01-10 22:09:00,
2013-01-10 17:11:00,39.7,22.0,30.49,NNW,338,0.4,2.0,49,0.00,,,0.00,WUHU216HW,2013-01-10 22:11:00,
2013-01-10 17:14:00,39.3,21.6,30.49,NNW,338,0.0,1.8,49,0.00,,,0.00,WUHU216HW,2013-01-10 22:14:00,
2013-01-10 17:16:00,39.3,21.6,30.49,NNW,338,0.0,0.9,49,0.00,,,0.00,WUHU216HW,2013-01-10 22:16:00,
2013-01-10 17:19:00,39.0,21.4,30.49,West,270,1.1,1.1,49,0.00,,,0.00,WUHU216HW,2013-01-10 22:19:00,
2013-01-10 17:21:00,39.0,21.4,30.49,WNW,293,1.1,1.1,49,0.00,,,0.00,WUHU216HW,2013-01-10 22:21:00,
2013-01-10 17:24:00,38.6,21.0,30.49,NNW,338,0.4,1.8,49,0.00,,,0.00,WUHU216HW,2013-01-10 22:24:00,
2013-01-10 17:26:00,38.6,21.5,30.49,NNW,338,0.4,1.8,50,0.00,,,0.00,WUHU216HW,2013-01-10 22:26:00,
2013-01-10 17:27:00,38.4,21.3,30.49,West,270,0.4,1.8,50,0.00,,,0.00,WUHU216HW,2013-01-10 22:27:00,
2013-01-10 17:29:00,38.3,21.7,30.49,NW,315,0.0,1.8,51,0.00,,,0.00,WUHU216HW,2013-01-10 22:29:00,
2013-01-10 17:31:00,38.1,21.5,30.50,SSE,158,1.1,1.8,51,0.00,,,0.00,WUHU216HW,2013-01-10 22:31:00,
2013-01-10 17:32:00,38.1,21.5,30.49,SSE,158,0.7,1.1,51,0.00,,,0.00,WUHU216HW,2013-01-10 22:32:00,
2013-01-10 17:34:00,37.9,21.4,30.50,South,180,0.7,1.1,51,0.00,,,0.00,WUHU216HW,2013-01-10 22:34:00,
2013-01-10 17:36:00,37.9,21.4,30.50,SSW,203,0.9,1.3,51,0.00,,,0.00,WUHU216HW,2013-01-10 22:36:00,
2013-01-10 17:37:00,37.9,21.4,30.49,SSW,203,0.4,1.3,51,0.00,,,0.00,WUHU216HW,2013-01-10 22:37:00,
2013-01-10 17:39:00,37.7,21.2,30.49,West,270,0.4,1.3,51,0.00,,,0.00,WUHU216HW,2013-01-10 22:39:00,
2013-01-10 17:41:00,37.5,21.0,30.50,West,270,0.7,1.3,51,0.00,,,0.00,WUHU216HW,2013-01-10 22:41:00,
2013-01-10 17:42:00,37.6,21.0,30.49,WNW,293,0.4,1.3,51,0.00,,,0.00,WUHU216HW,2013-01-10 22:42:00,
2013-01-10 17:44:00,37.5,21.4,30.50,WNW,293,0.0,1.3,52,0.00,,,0.00,WUHU216HW,2013-01-10 22:44:00,
2013-01-10 17:46:00,37.3,21.2,30.49,SSW,203,0.0,0.7,52,0.00,,,0.00,WUHU216HW,2013-01-10 22:46:00,
2013-01-10 17:47:00,37.3,21.2,30.49,SSW,203,0.0,0.7,52,0.00,,,0.00,WUHU216HW,2013-01-10 22:47:00,
2013-01-10 17:50:00,37.3,21.2,30.49,West,270,1.3,1.3,52,0.00,,,0.00,WUHU216HW,2013-01-10 22:50:00,
2013-01-10 17:51:00,37.1,21.0,30.50,West,270,0.4,1.3,52,0.00,,,0.00,WUHU216HW,2013-01-10 22:51:00,
2013-01-10 17:52:00,37.1,21.0,30.50,West,270,1.1,1.3,52,0.00,,,0.00,WUHU216HW,2013-01-10 22:52:00,
2013-01-10 17:55:00,36.9,20.9,30.50,West,270,1.3,1.3,52,0.00,,,0.00,WUHU216HW,2013-01-10 22:55:00,
2013-01-10 17:56:00,36.9,21.3,30.50,West,270,1.8,1.8,53,0.00,,,0.00,WUHU216HW,2013-01-10 22:56:00,
2013-01-10 17:57:00,36.9,21.3,30.50,West,270,1.6,1.8,53,0.00,,,0.00,WUHU216HW,2013-01-10 22:57:00,
2013-01-10 18:00:00,36.7,21.1,30.50,WNW,293,1.1,1.8,53,0.00,,,0.00,WUHU216HW,2013-01-10 23:00:00,
2013-01-10 18:01:00,36.6,21.1,30.50,WNW,293,0.4,1.8,53,0.00,,,0.00,WUHU216HW,2013-01-10 23:01:00,
2013-01-10 18:02:00,36.6,21.1,30.50,NW,315,0.9,1.8,53,0.00,,,0.00,WUHU216HW,2013-01-10 23:02:00,
2013-01-10 18:05:00,36.2,20.7,30.50,NNW,338,0.2,1.8,53,0.00,,,0.00,WUHU216HW,2013-01-10 23:05:00,
2013-01-10 18:06:00,36.2,21.2,30.50,NNW,338,0.4,1.6,54,0.00,,,0.00,WUHU216HW,2013-01-10 23:06:00,
2013-01-10 18:07:00,36.2,21.2,30.50,NNW,338,0.7,1.1,54,0.00,,,0.00,WUHU216HW,2013-01-10 23:07:00,
2013-01-10 18:10:00,36.0,21.0,30.50,NW,315,2.0,2.0,54,0.00,,,0.00,WUHU216HW,2013-01-10 23:10:00,
2013-01-10 18:11:00,36.0,21.4,30.50,NW,315,1.8,2.0,55,0.00,,,0.00,WUHU216HW,2013-01-10 23:11:00,
2013-01-10 18:12:00,36.0,21.4,30.50,WNW,293,1.8,2.0,55,0.00,,,0.00,WUHU216HW,2013-01-10 23:12:00,
2013-01-10 18:15:00,35.7,21.2,30.50,West,270,2.0,2.0,55,0.00,,,0.00,WUHU216HW,2013-01-10 23:15:00,
2013-01-10 18:16:00,35.7,21.2,30.50,West,270,2.2,2.2,55,0.00,,,0.00,WUHU216HW,2013-01-10 23:16:00,
2013-01-10 18:17:00,35.7,21.2,30.50,West,270,1.8,2.2,55,0.00,,,0.00,WUHU216HW,2013-01-10 23:17:00,
2013-01-10 18:20:00,35.6,21.0,30.50,West,270,1.1,2.2,55,0.00,,,0.00,WUHU216HW,2013-01-10 23:20:00,
2013-01-10 18:22:00,35.6,21.0,30.50,West,270,2.0,2.2,55,0.00,,,0.00,WUHU216HW,2013-01-10 23:22:00,
2013-01-10 18:25:00,35.2,20.6,30.50,WNW,293,1.8,2.7,55,0.00,,,0.00,WUHU216HW,2013-01-10 23:25:00,
2013-01-10 18:27:00,35.2,21.1,30.50,NW,315,1.8,2.7,56,0.00,,,0.00,WUHU216HW,2013-01-10 23:27:00,
2013-01-10 18:28:00,35.0,20.9,30.50,NW,315,2.2,2.7,56,0.00,,,0.00,WUHU216HW,2013-01-10 23:28:00,
2013-01-10 18:30:00,34.9,20.8,30.50,NW,315,2.0,2.7,56,0.00,,,0.00,WUHU216HW,2013-01-10 23:30:00,
2013-01-10 18:32:00,34.9,20.8,30.50,NW,315,1.8,2.7,56,0.00,,,0.00,WUHU216HW,2013-01-10 23:32:00,
2013-01-10 18:33:00,34.9,20.8,30.50,NW,315,1.8,2.7,56,0.00,,,0.00,WUHU216HW,2013-01-10 23:33:00,
2013-01-10 18:35:00,34.7,21.0,30.50,WNW,293,0.9,2.7,57,0.00,,,0.00,WUHU216HW,2013-01-10 23:35:00,
2013-01-10 18:37:00,34.7,21.0,30.50,NW,315,1.8,2.7,57,0.00,,,0.00,WUHU216HW,2013-01-10 23:37:00,
2013-01-10 18:38:00,34.5,20.9,30.50,WNW,293,1.1,2.7,57,0.00,,,0.00,WUHU216HW,2013-01-10 23:38:00,
2013-01-10 18:40:00,34.5,20.9,30.50,NW,315,2.0,2.0,57,0.00,,,0.00,WUHU216HW,2013-01-10 23:40:00,
2013-01-10 18:41:00,34.5,20.9,30.50,WNW,293,2.7,2.7,57,0.00,,,0.00,WUHU216HW,2013-01-10 23:41:00,
2013-01-10 18:42:00,34.5,20.9,30.50,WNW,293,2.7,2.7,57,0.00,,,0.00,WUHU216HW,2013-01-10 23:42:00,
2013-01-10 18:43:00,34.5,20.9,30.50,WNW,293,2.7,2.7,57,0.00,,,0.00,WUHU216HW,2013-01-10 23:43:00,
2013-01-10 18:45:00,34.5,20.9,30.50,WNW,293,2.7,2.7,57,0.00,,,0.00,WUHU216HW,2013-01-10 23:45:00,
2013-01-10 18:47:00,34.5,20.9,30.50,WNW,293,2.7,2.7,57,0.00,,,0.00,WUHU216HW,2013-01-10 23:47:00,
2013-01-10 18:48:00,34.5,20.9,30.50,WNW,293,2.7,2.7,57,0.00,,,0.00,WUHU216HW,2013-01-10 23:48:00,
2013-01-10 18:50:00,34.5,20.9,30.50,WNW,293,2.7,2.7,57,0.00,,,0.00,WUHU216HW,2013-01-10 23:50:00,
2013-01-10 19:00:00,34.8,21.9,30.51,NNW,338,2.0,2.0,59,0.00,,,0.00,WUHU216HW,2013-01-11 00:00:00,
2013-01-10 19:05:00,35.0,22.1,30.51,NW,315,2.0,2.7,59,0.00,,,0.00,WUHU216HW,2013-01-11 00:05:00,
2013-01-10 19:10:00,35.5,22.6,30.51,WNW,293,2.0,2.7,59,0.00,,,0.00,WUHU216HW,2013-01-11 00:10:00,
2013-01-10 19:15:00,35.7,22.8,30.51,WSW,248,2.0,2.9,59,0.00,,,0.00,WUHU216HW,2013-01-11 00:15:00,
2013-01-10 19:16:00,35.7,22.8,30.51,WSW,248,2.0,2.9,59,0.00,,,0.00,WUHU216HW,2013-01-11 00:16:00,
2013-01-10 19:20:00,35.5,22.7,30.51,West,270,1.1,2.9,59,0.00,,,0.00,WUHU216HW,2013-01-11 00:20:00,
2013-01-10 19:21:00,35.5,22.7,30.51,West,270,1.1,2.9,59,0.00,,,0.00,WUHU216HW,2013-01-11 00:21:00,
2013-01-10 19:25:00,35.4,22.5,30.51,North,0,0.9,1.6,59,0.00,,,0.00,WUHU216HW,2013-01-11 00:25:00,
2013-01-10 19:26:00,35.4,22.5,30.51,North,0,0.9,1.6,59,0.00,,,0.00,WUHU216HW,2013-01-11 00:26:00,
2013-01-10 19:30:00,35.4,22.5,30.51,North,0,0.4,0.9,59,0.00,,,0.00,WUHU216HW,2013-01-11 00:30:00,
2013-01-10 19:31:00,35.4,22.5,30.51,North,0,0.4,0.9,59,0.00,,,0.00,WUHU216HW,2013-01-11 00:31:00,
2013-01-10 19:35:00,35.4,22.9,30.51,North,0,1.3,1.8,60,0.00,,,0.00,WUHU216HW,2013-01-11 00:35:00,
2013-01-10 19:36:00,35.4,22.9,30.51,North,0,1.3,1.8,60,0.00,,,0.00,WUHU216HW,2013-01-11 00:36:00,
2013-01-10 19:41:00,35.4,22.9,30.51,North,0,1.3,2.5,60,0.00,,,0.00,WUHU216HW,2013-01-11 00:41:00,
2013-01-10 19:46:00,35.1,22.7,30.51,SSE,158,1.8,2.5,60,0.00,,,0.00,WUHU216HW,2013-01-11 00:46:00,
2013-01-10 19:51:00,34.7,22.3,30.52,WNW,293,1.1,1.8,60,0.00,,,0.00,WUHU216HW,2013-01-11 00:51:00,
2013-01-10 19:56:00,34.4,22.7,30.52,East,90,0.9,1.8,62,0.00,,,0.00,WUHU216HW,2013-01-11 00:56:00,
2013-01-10 20:01:00,34.4,22.4,30.52,ENE,68,0.7,1.8,61,0.00,,,0.00,WUHU216HW,2013-01-11 01:01:00,
2013-01-10 20:02:00,34.4,22.4,30.52,ENE,68,0.7,1.1,61,0.00,,,0.00,WUHU216HW,2013-01-11 01:02:00,
2013-01-10 20:06:00,34.4,22.8,30.52,NNE,23,0.7,1.1,62,0.00,,,0.00,WUHU216HW,2013-01-11 01:06:00,
2013-01-10 20:07:00,34.4,22.8,30.52,NNE,23,0.7,1.1,62,0.00,,,0.00,WUHU216HW,2013-01-11 01:07:00,
2013-01-10 20:12:00,34.4,22.8,30.53,ENE,68,0.4,1.1,62,0.00,,,0.00,WUHU216HW,2013-01-11 01:12:00,
2013-01-10 20:17:00,34.3,22.7,30.52,North,0,0.7,1.1,62,0.00,,,0.00,WUHU216HW,2013-01-11 01:17:00,
2013-01-10 20:22:00,34.0,22.7,30.52,NNE,23,1.3,1.8,63,0.00,,,0.00,WUHU216HW,2013-01-11 01:22:00,
2013-01-10 20:27:00,34.0,23.1,30.52,North,0,1.8,1.8,64,0.00,,,0.00,WUHU216HW,2013-01-11 01:27:00,
2013-01-10 20:32:00,33.6,22.8,30.52,NE,45,0.4,1.8,64,0.00,,,0.00,WUHU216HW,2013-01-11 01:32:00,
2013-01-10 20:37:00,33.3,22.5,30.53,NE,45,0.0,1.1,64,0.00,,,0.00,WUHU216HW,2013-01-11 01:37:00,
2013-01-10 20:38:00,33.3,22.5,30.53,NE,45,0.0,0.9,64,0.00,,,0.00,WUHU216HW,2013-01-11 01:38:00,
2013-01-10 20:42:00,33.1,22.3,30.52,North,0,0.4,0.7,64,0.00,,,0.00,WUHU216HW,2013-01-11 01:42:00,
2013-01-10 20:43:00,33.1,22.3,30.53,North,0,0.0,0.7,64,0.00,,,0.00,WUHU216HW,2013-01-11 01:43:00,
2013-01-10 20:47:00,33.1,22.7,30.53,NNE,23,1.3,1.3,65,0.00,,,0.00,WUHU216HW,2013-01-11 01:47:00,
2013-01-10 20:48:00,33.1,22.7,30.53,NNE,23,1.1,1.3,65,0.00,,,0.00,WUHU216HW,2013-01-11 01:48:00,
2013-01-10 20:52:00,33.2,23.1,30.52,North,0,0.7,1.8,66,0.00,,,0.00,WUHU216HW,2013-01-11 01:52:00,
2013-01-10 20:53:00,33.2,23.1,30.52,North,0,1.1,1.8,66,0.00,,,0.00,WUHU216HW,2013-01-11 01:53:00,
2013-01-10 20:57:00,33.0,22.9,30.53,North,0,0.0,1.8,66,0.00,,,0.00,WUHU216HW,2013-01-11 01:57:00,
2013-01-10 20:58:00,33.0,22.6,30.52,North,0,0.0,1.6,65,0.00,,,0.00,WUHU216HW,2013-01-11 01:58:00,
2013-01-10 21:02:00,32.8,22.8,30.52,NNE,23,1.8,1.8,66,0.00,,,0.00,WUHU216HW,2013-01-11 02:02:00,
2013-01-10 21:03:00,32.8,22.8,30.52,NNE,23,1.8,1.8,66,0.00,,,0.00,WUHU216HW,2013-01-11 02:03:00,
2013-01-10 21:07:00,33.0,23.3,30.52,North,0,1.1,1.8,67,0.00,,,0.00,WUHU216HW,2013-01-11 02:07:00,
2013-01-10 21:08:00,33.0,23.3,30.52,North,0,1.1,1.8,67,0.00,,,0.00,WUHU216HW,2013-01-11 02:08:00,
2013-01-10 21:09:00,33.0,23.3,30.52,North,0,1.3,1.8,67,0.00,,,0.00,WUHU216HW,2013-01-11 02:09:00,
2013-01-10 21:12:00,32.8,23.1,30.53,North,0,0.4,1.6,67,0.00,,,0.00,WUHU216HW,2013-01-11 02:12:00,
2013-01-10 21:13:00,32.7,23.0,30.53,North,0,0.9,1.6,67,0.00,,,0.00,WUHU216HW,2013-01-11 02:13:00,
2013-01-10 21:14:00,32.7,23.0,30.53,North,0,0.9,1.6,67,0.00,,,0.00,WUHU216HW,2013-01-11 02:14:00,
2013-01-10 21:17:00,32.5,22.8,30.53,North,0,0.4,1.6,67,0.00,,,0.00,WUHU216HW,2013-01-11 02:17:00,
2013-01-10 21:18:00,32.5,22.8,30.53,North,0,0.9,1.6,67,0.00,,,0.00,WUHU216HW,2013-01-11 02:18:00,
2013-01-10 21:19:00,32.5,22.8,30.53,North,0,0.9,1.1,67,0.00,,,0.00,WUHU216HW,2013-01-11 02:19:00,
2013-01-10 21:23:00,32.3,22.3,30.52,North,0,1.1,1.1,66,0.00,,,0.00,WUHU216HW,2013-01-11 02:23:00,
2013-01-10 21:24:00,32.1,22.4,30.53,North,0,0.4,1.1,67,0.00,,,0.00,WUHU216HW,2013-01-11 02:24:00,
2013-01-10 21:28:00,32.1,22.4,30.52,North,0,0.7,1.1,67,0.00,,,0.00,WUHU216HW,2013-01-11 02:28:00,
2013-01-10 21:29:00,31.9,22.3,30.52,North,0,1.3,1.3,67,0.00,,,0.00,WUHU216HW,2013-01-11 02:29:00,
2013-01-10 21:33:00,32.1,22.8,30.53,North,0,1.8,1.8,68,0.00,,,0.00,WUHU216HW,2013-01-11 02:33:00,
2013-01-10 21:34:00,32.5,23.2,30.52,North,0,0.7,1.8,68,0.00,,,0.00,WUHU216HW,2013-01-11 02:34:00,
2013-01-10 21:38:00,32.5,23.2,30.52,North,0,0.2,1.8,68,0.00,,,0.00,WUHU216HW,2013-01-11 02:38:00,
2013-01-10 21:39:00,32.5,23.2,30.53,North,0,0.0,1.8,68,0.00,,,0.00,WUHU216HW,2013-01-11 02:39:00,
2013-01-10 21:43:00,32.5,23.2,30.53,NNE,23,0.0,0.7,68,0.00,,,0.00,WUHU216HW,2013-01-11 02:43:00,
2013-01-10 21:44:00,32.5,22.8,30.52,NNE,23,0.0,0.7,67,0.00,,,0.00,WUHU216HW,2013-01-11 02:44:00,
2013-01-10 21:45:00,32.5,22.8,30.53,North,0,0.2,0.4,67,0.00,,,0.00,WUHU216HW,2013-01-11 02:45:00,
2013-01-10 21:48:00,32.5,22.8,30.53,North,0,0.0,0.2,67,0.00,,,0.00,WUHU216HW,2013-01-11 02:48:00,
2013-01-10 21:49:00,32.5,22.8,30.53,North,0,0.0,0.2,67,0.00,,,0.00,WUHU216HW,2013-01-11 02:49:00,
2013-01-10 21:50:00,32.5,22.8,30.53,North,0,0.0,0.2,67,0.00,,,0.00,WUHU216HW,2013-01-11 02:50:00,
2013-01-10 21:53:00,32.3,22.6,30.52,North,0,1.8,1.8,67,0.00,,,0.00,WUHU216HW,2013-01-11 02:53:00,
2013-01-10 21:54:00,32.3,22.6,30.52,North,0,1.8,1.8,67,0.00,,,0.00,WUHU216HW,2013-01-11 02:54:00,
2013-01-10 21:55:00,32.3,23.0,30.52,North,0,1.8,1.8,68,0.00,,,0.00,WUHU216HW,2013-01-11 02:55:00,
2013-01-10 21:58:00,32.1,23.1,30.52,NNE,23,0.4,1.8,69,0.00,,,0.00,WUHU216HW,2013-01-11 02:58:00,
2013-01-10 21:59:00,32.1,23.1,30.52,NNE,23,0.4,1.8,69,0.00,,,0.00,WUHU216HW,2013-01-11 02:59:00,
2013-01-10 22:00:00,32.1,23.1,30.52,NNE,23,0.4,1.8,69,0.00,,,0.00,WUHU216HW,2013-01-11 03:00:00,
2013-01-10 22:03:00,32.1,23.1,30.52,NNE,23,0.4,1.8,69,0.00,,,0.00,WUHU216HW,2013-01-11 03:03:00,
2013-01-10 22:04:00,32.1,23.1,30.52,North,0,0.4,1.8,69,0.00,,,0.00,WUHU216HW,2013-01-11 03:04:00,
2013-01-10 22:05:00,32.1,23.1,30.52,North,0,0.4,1.8,69,0.00,,,0.00,WUHU216HW,2013-01-11 03:05:00,
2013-01-10 22:08:00,32.1,23.1,30.52,NNW,338,1.1,1.1,69,0.00,,,0.00,WUHU216HW,2013-01-11 03:08:00,
2013-01-10 22:09:00,32.1,23.1,30.52,NNW,338,0.2,1.1,69,0.00,,,0.00,WUHU216HW,2013-01-11 03:09:00,
2013-01-10 22:10:00,32.1,23.1,30.52,NNW,338,0.0,1.1,69,0.00,,,0.00,WUHU216HW,2013-01-11 03:10:00,
2013-01-10 22:14:00,32.1,23.1,30.53,ESE,113,0.4,1.1,69,0.00,,,0.00,WUHU216HW,2013-01-11 03:14:00,
2013-01-10 22:15:00,32.3,23.3,30.53,ESE,113,0.4,1.1,69,0.00,,,0.00,WUHU216HW,2013-01-11 03:15:00,
2013-01-10 22:19:00,32.3,23.3,30.53,ESE,113,0.0,1.1,69,0.00,,,0.00,WUHU216HW,2013-01-11 03:19:00,
2013-01-10 22:20:00,32.3,23.3,30.52,North,0,0.9,1.1,69,0.00,,,0.00,WUHU216HW,2013-01-11 03:20:00,
2013-01-10 22:24:00,32.5,23.5,30.52,North,0,0.2,0.9,69,0.00,,,0.00,WUHU216HW,2013-01-11 03:24:00,
2013-01-10 22:25:00,32.5,23.5,30.52,North,0,0.4,0.9,69,0.00,,,0.00,WUHU216HW,2013-01-11 03:25:00,
2013-01-10 22:26:00,32.5,23.5,30.52,North,0,0.7,0.9,69,0.00,,,0.00,WUHU216HW,2013-01-11 03:26:00,
2013-01-10 22:29:00,32.5,23.5,30.52,ENE,68,0.7,0.9,69,0.00,,,0.00,WUHU216HW,2013-01-11 03:29:00,
2013-01-10 22:31:00,32.5,23.5,30.52,ENE,68,0.7,0.9,69,0.00,,,0.00,WUHU216HW,2013-01-11 03:31:00,
2013-01-10 22:34:00,32.5,23.5,30.52,NNE,23,1.3,1.8,69,0.00,,,0.00,WUHU216HW,2013-01-11 03:34:00,
2013-01-10 22:36:00,32.7,23.7,30.52,North,0,1.6,1.8,69,0.00,,,0.00,WUHU216HW,2013-01-11 03:36:00,
2013-01-10 22:39:00,32.7,23.7,30.52,North,0,0.4,1.8,69,0.00,,,0.00,WUHU216HW,2013-01-11 03:39:00,
2013-01-10 22:41:00,32.7,23.7,30.52,North,0,0.0,1.8,69,0.00,,,0.00,WUHU216HW,2013-01-11 03:41:00,
2013-01-10 22:44:00,32.7,23.7,30.53,North,0,0.7,1.6,69,0.00,,,0.00,WUHU216HW,2013-01-11 03:44:00,
2013-01-10 22:46:00,32.5,23.5,30.52,North,0,0.4,1.1,69,0.00,,,0.00,WUHU216HW,2013-01-11 03:46:00,
2013-01-10 22:49:00,32.5,23.5,30.52,North,0,0.7,1.1,69,0.00,,,0.00,WUHU216HW,2013-01-11 03:49:00,
2013-01-10 22:51:00,32.5,23.5,30.52,NNE,23,1.1,1.1,69,0.00,,,0.00,WUHU216HW,2013-01-11 03:51:00,
2013-01-10 22:54:00,32.5,23.9,30.52,North,0,1.8,1.8,70,0.00,,,0.00,WUHU216HW,2013-01-11 03:54:00,
2013-01-10 22:56:00,32.5,23.5,30.51,North,0,1.3,2.0,69,0.00,,,0.00,WUHU216HW,2013-01-11 03:56:00,
2013-01-10 22:57:00,32.5,23.5,30.51,NNE,23,1.1,2.0,69,0.00,,,0.00,WUHU216HW,2013-01-11 03:57:00,
2013-01-10 22:59:00,32.5,23.9,30.51,NNE,23,1.1,2.0,70,0.00,,,0.00,WUHU216HW,2013-01-11 03:59:00,
2013-01-10 23:01:00,32.5,23.5,30.52,North,0,0.2,2.0,69,0.00,,,0.00,WUHU216HW,2013-01-11 04:01:00,
2013-01-10 23:02:00,32.5,23.5,30.52,North,0,0.0,2.0,69,0.00,,,0.00,WUHU216HW,2013-01-11 04:02:00,
2013-01-10 23:04:00,32.5,23.9,30.52,North,0,0.4,2.0,70,0.00,,,0.00,WUHU216HW,2013-01-11 04:04:00,
2013-01-10 23:06:00,32.5,23.9,30.52,North,0,1.1,1.1,70,0.00,,,0.00,WUHU216HW,2013-01-11 04:06:00,
2013-01-10 23:08:00,32.5,23.9,30.52,NNE,23,1.3,1.3,70,0.00,,,0.00,WUHU216HW,2013-01-11 04:08:00,
2013-01-10 23:09:00,32.5,23.9,30.52,North,0,1.8,1.8,70,0.00,,,0.00,WUHU216HW,2013-01-11 04:09:00,
2013-01-10 23:12:00,32.5,23.9,30.52,North,0,1.8,1.8,70,0.00,,,0.00,WUHU216HW,2013-01-11 04:12:00,
2013-01-10 23:13:00,32.5,23.5,30.52,NNE,23,1.8,1.8,69,0.00,,,0.00,WUHU216HW,2013-01-11 04:13:00,
2013-01-10 23:15:00,32.5,23.5,30.52,North,0,2.5,2.5,69,0.00,,,0.00,WUHU216HW,2013-01-11 04:15:00,
2013-01-10 23:17:00,32.5,23.5,30.52,North,0,2.5,2.5,69,0.00,,,0.00,WUHU216HW,2013-01-11 04:17:00,
2013-01-10 23:18:00,32.5,23.5,30.51,North,0,1.8,2.5,69,0.00,,,0.00,WUHU216HW,2013-01-11 04:18:00,
2013-01-10 23:20:00,32.7,24.1,30.51,North,0,1.1,2.5,70,0.00,,,0.00,WUHU216HW,2013-01-11 04:20:00,
2013-01-10 23:22:00,32.7,23.7,30.52,NNE,23,0.7,2.5,69,0.00,,,0.00,WUHU216HW,2013-01-11 04:22:00,
2013-01-10 23:23:00,32.7,23.7,30.51,North,0,0.7,2.5,69,0.00,,,0.00,WUHU216HW,2013-01-11 04:23:00,
2013-01-10 23:25:00,32.7,24.1,30.51,North,0,0.4,2.5,70,0.00,,,0.00,WUHU216HW,2013-01-11 04:25:00,
2013-01-10 23:27:00,32.7,24.1,30.52,North,0,0.4,2.0,70,0.00,,,0.00,WUHU216HW,2013-01-11 04:27:00,
2013-01-10 23:28:00,32.5,23.9,30.52,NNW,338,0.9,1.1,70,0.00,,,0.00,WUHU216HW,2013-01-11 04:28:00,
2013-01-10 23:30:00,32.5,23.5,30.52,NNW,338,0.4,0.9,69,0.00,,,0.00,WUHU216HW,2013-01-11 04:30:00,
2013-01-10 23:32:00,32.5,23.9,30.52,SSW,203,0.4,0.9,70,0.00,,,0.00,WUHU216HW,2013-01-11 04:32:00,
2013-01-10 23:33:00,32.5,23.9,30.52,WSW,248,0.0,0.9,70,0.00,,,0.00,WUHU216HW,2013-01-11 04:33:00,
2013-01-10 23:35:00,32.5,23.9,30.52,NNW,338,0.9,0.9,70,0.00,,,0.00,WUHU216HW,2013-01-11 04:35:00,
2013-01-10 23:37:00,32.7,24.1,30.52,North,0,1.1,1.3,70,0.00,,,0.00,WUHU216HW,2013-01-11 04:37:00,
2013-01-10 23:38:00,32.7,24.1,30.52,North,0,0.9,1.3,70,0.00,,,0.00,WUHU216HW,2013-01-11 04:38:00,
2013-01-10 23:40:00,32.7,24.1,30.52,North,0,0.9,1.3,70,0.00,,,0.00,WUHU216HW,2013-01-11 04:40:00,
2013-01-10 23:42:00,32.7,24.1,30.52,NNE,23,1.8,1.8,70,0.00,,,0.00,WUHU216HW,2013-01-11 04:42:00,
2013-01-10 23:43:00,32.5,23.9,30.52,NNE,23,1.8,1.8,70,0.00,,,0.00,WUHU216HW,2013-01-11 04:43:00,
2013-01-10 23:45:00,32.7,24.1,30.52,North,0,1.1,1.8,70,0.00,,,0.00,WUHU216HW,2013-01-11 04:45:00,
2013-01-10 23:47:00,32.7,24.1,30.52,North,0,0.2,1.8,70,0.00,,,0.00,WUHU216HW,2013-01-11 04:47:00,
2013-01-10 23:48:00,32.7,24.1,30.53,East,90,0.0,1.8,70,0.00,,,0.00,WUHU216HW,2013-01-11 04:48:00,
2013-01-10 23:50:00,32.7,23.7,30.53,East,90,0.2,1.8,69,0.00,,,0.00,WUHU216HW,2013-01-11 04:50:00,
2013-01-10 23:53:00,32.8,24.2,30.52,North,0,2.7,3.1,70,0.00,,,0.00,WUHU216HW,2013-01-11 04:53:00,
2013-01-10 23:55:00,32.8,24.2,30.52,North,0,1.8,3.1,70,0.00,,,0.00,WUHU216HW,2013-01-11 04:55:00,
2013-01-10 23:58:00,33.0,24.3,30.52,SSW,203,0.4,3.1,70,0.00,,,0.00,WUHU216HW,2013-01-11 04:58:00,